Time,TemperatureF,DewpointF,PressureIn,WindDirection,WindDirectionDegrees,WindSpeedMPH,WindSpeedGustMPH,Humidity,HourlyPrecipIn,Conditions,Clouds,dailyrainin,SoftwareType,DateUTC
2013-05-18 00:02:00,55.4,51.3,29.90,East,99,12.0,14.0,86,0.00,,,0.00,Wunderground v.1.13,2013-05-18 05:02:00,
2013-05-18 00:03:00,55.4,51.3,29.90,ESE,103,12.0,14.0,86,0.00,,,0.00,Wunderground v.1.13,2013-05-18 05:03:00,
2013-05-18 00:04:00,55.4,51.3,29.90,SE,141,12.0,18.0,86,0.00,,,0.00,Wunderground v.1.13,2013-05-18 05:04:00,
2013-05-18 00:06:00,55.3,51.2,29.90,ESE,118,12.0,12.0,86,0.00,,,0.00,Wunderground v.1.13,2013-05-18 05:06:00,
2013-05-18 00:07:00,55.3,51.2,29.90,East,79,12.0,12.0,86,0.00,,,0.00,Wunderground v.1.13,2013-05-18 05:07:00,
2013-05-18 00:09:00,55.3,51.2,29.90,ESE,105,11.0,12.0,86,0.00,,,0.00,Wunderground v.1.13,2013-05-18 05:09:00,
2013-05-18 00:10:00,55.4,51.3,29.90,ESE,114,11.0,11.0,86,0.00,,,0.00,Wunderground v.1.13,2013-05-18 05:10:00,
2013-05-18 00:12:00,55.3,51.2,29.90,ESE,115,11.0,13.0,86,0.00,,,0.00,Wunderground v.1.13,2013-05-18 05:12:00,
2013-05-18 00:13:00,55.3,51.2,29.90,ESE,105,10.0,13.0,86,0.00,,,0.00,Wunderground v.1.13,2013-05-18 05:13:00,
2013-05-18 00:15:00,55.2,51.1,29.91,ESE,119,9.0,9.0,86,0.00,,,0.00,Wunderground v.1.13,2013-05-18 05:15:00,
2013-05-18 00:16:00,55.2,51.1,29.91,SE,126,9.0,9.0,86,0.00,,,0.00,Wunderground v.1.13,2013-05-18 05:16:00,
2013-05-18 00:20:00,55.2,51.1,29.90,ESE,114,9.0,12.0,86,0.00,,,0.00,Wunderground v.1.13,2013-05-18 05:20:00,
2013-05-18 00:23:00,55.2,51.1,29.90,ESE,107,9.0,14.0,86,0.00,,,0.00,Wunderground v.1.13,2013-05-18 05:23:00,
2013-05-18 00:24:00,55.2,51.1,29.90,ESE,109,9.0,14.0,86,0.00,,,0.00,Wunderground v.1.13,2013-05-18 05:24:00,
2013-05-18 00:29:00,55.2,51.1,29.90,East,95,9.0,13.0,86,0.00,,,0.00,Wunderground v.1.13,2013-05-18 05:29:00,
2013-05-18 00:30:00,55.2,51.1,29.91,East,92,9.0,11.0,86,0.00,,,0.00,Wunderground v.1.13,2013-05-18 05:30:00,
2013-05-18 00:31:00,55.2,51.1,29.91,ESE,107,9.0,11.0,86,0.00,,,0.00,Wunderground v.1.13,2013-05-18 05:31:00,
2013-05-18 00:32:00,55.2,51.1,29.90,SE,124,9.0,13.0,86,0.00,,,0.00,Wunderground v.1.13,2013-05-18 05:32:00,
2013-05-18 00:36:00,55.2,51.1,29.91,East,100,8.0,10.0,86,0.00,,,0.00,Wunderground v.1.13,2013-05-18 05:36:00,
2013-05-18 00:38:00,55.2,51.1,29.91,ESE,112,8.0,10.0,86,0.00,,,0.00,Wunderground v.1.13,2013-05-18 05:38:00,
2013-05-18 00:39:00,55.2,51.1,29.91,East,91,8.0,10.0,86,0.00,,,0.00,Wunderground v.1.13,2013-05-18 05:39:00,
2013-05-18 00:40:00,55.2,51.1,29.91,ESE,119,8.0,8.0,86,0.00,,,0.00,Wunderground v.1.13,2013-05-18 05:40:00,
2013-05-18 00:41:00,55.2,51.1,29.91,ESE,103,8.0,8.0,86,0.00,,,0.00,Wunderground v.1.13,2013-05-18 05:41:00,
2013-05-18 00:42:00,55.2,51.1,29.90,ENE,63,8.0,8.0,86,0.00,,,0.00,Wunderground v.1.13,2013-05-18 05:42:00,
2013-05-18 00:46:00,55.2,51.1,29.90,ESE,106,8.0,12.0,86,0.00,,,0.00,Wunderground v.1.13,2013-05-18 05:46:00,
2013-05-18 00:47:00,55.2,51.1,29.90,East,101,8.0,12.0,86,0.00,,,0.00,Wunderground v.1.13,2013-05-18 05:47:00,
2013-05-18 00:49:00,55.1,51.0,29.90,SE,126,8.0,12.0,86,0.00,,,0.00,Wunderground v.1.13,2013-05-18 05:49:00,
2013-05-18 00:53:00,55.2,51.1,29.90,ENE,76,9.0,12.0,86,0.00,,,0.00,Wunderground v.1.13,2013-05-18 05:53:00,
2013-05-18 00:55:00,55.2,51.1,29.90,ESE,116,9.0,10.0,86,0.00,,,0.00,Wunderground v.1.13,2013-05-18 05:55:00,
2013-05-18 00:59:00,55.1,51.0,29.90,NE,38,9.0,10.0,86,0.00,,,0.00,Wunderground v.1.13,2013-05-18 05:59:00,
2013-05-18 01:01:00,55.1,51.0,29.90,ESE,111,9.0,11.0,86,0.00,,,0.00,Wunderground v.1.13,2013-05-18 06:01:00,
2013-05-18 01:05:00,55.1,51.0,29.90,ESE,105,9.0,10.0,86,0.00,,,0.00,Wunderground v.1.13,2013-05-18 06:05:00,
2013-05-18 01:06:00,55.1,51.0,29.90,East,94,9.0,10.0,86,0.00,,,0.00,Wunderground v.1.13,2013-05-18 06:06:00,
2013-05-18 01:07:00,55.1,51.0,29.89,ESE,112,9.0,10.0,86,0.00,,,0.00,Wunderground v.1.13,2013-05-18 06:07:00,
2013-05-18 01:08:00,55.1,51.0,29.89,East,99,9.0,12.0,86,0.00,,,0.00,Wunderground v.1.13,2013-05-18 06:08:00,
2013-05-18 01:09:00,55.1,51.0,29.89,ESE,118,9.0,12.0,86,0.00,,,0.00,Wunderground v.1.13,2013-05-18 06:09:00,
2013-05-18 01:14:00,55.1,51.0,29.89,ESE,108,9.0,10.0,86,0.00,,,0.00,Wunderground v.1.13,2013-05-18 06:14:00,
2013-05-18 01:15:00,55.1,51.0,29.89,ESE,119,9.0,12.0,86,0.00,,,0.00,Wunderground v.1.13,2013-05-18 06:15:00,
2013-05-18 01:18:00,55.1,51.0,29.89,East,99,9.0,13.0,86,0.00,,,0.00,Wunderground v.1.13,2013-05-18 06:18:00,
2013-05-18 01:20:00,55.1,51.0,29.89,ESE,102,9.0,9.0,86,0.00,,,0.00,Wunderground v.1.13,2013-05-18 06:20:00,
2013-05-18 01:21:00,55.2,51.1,29.89,East,99,9.0,9.0,86,0.00,,,0.00,Wunderground v.1.13,2013-05-18 06:21:00,
2013-05-18 01:24:00,55.2,51.1,29.89,ENE,74,9.0,9.0,86,0.00,,,0.00,Wunderground v.1.13,2013-05-18 06:24:00,
2013-05-18 01:26:00,55.2,51.1,29.89,East,100,8.0,8.0,86,0.00,,,0.00,Wunderground v.1.13,2013-05-18 06:26:00,
2013-05-18 01:27:00,55.1,51.0,29.89,ESE,115,8.0,8.0,86,0.00,,,0.00,Wunderground v.1.13,2013-05-18 06:27:00,
2013-05-18 01:28:00,55.1,51.0,29.89,East,95,8.0,8.0,86,0.00,,,0.00,Wunderground v.1.13,2013-05-18 06:28:00,
2013-05-18 01:30:00,55.1,51.0,29.88,NE,38,7.0,7.0,86,0.00,,,0.00,Wunderground v.1.13,2013-05-18 06:30:00,
2013-05-18 01:33:00,55.1,51.0,29.89,ESE,102,7.0,15.0,86,0.00,,,0.00,Wunderground v.1.13,2013-05-18 06:33:00,
2013-05-18 01:35:00,55.1,51.0,29.89,ESE,105,8.0,8.0,86,0.00,,,0.00,Wunderground v.1.13,2013-05-18 06:35:00,
2013-05-18 01:37:00,55.1,51.0,29.89,East,80,8.0,12.0,86,0.00,,,0.00,Wunderground v.1.13,2013-05-18 06:37:00,
2013-05-18 01:39:00,55.1,51.0,29.89,East,99,8.0,12.0,86,0.00,,,0.00,Wunderground v.1.13,2013-05-18 06:39:00,
2013-05-18 01:40:00,55.1,51.0,29.89,ESE,114,8.0,9.0,86,0.00,,,0.00,Wunderground v.1.13,2013-05-18 06:40:00,
2013-05-18 01:42:00,55.1,51.0,29.89,ESE,110,8.0,9.0,86,0.00,,,0.00,Wunderground v.1.13,2013-05-18 06:42:00,
2013-05-18 01:46:00,55.1,51.0,29.90,NE,41,7.0,7.0,86,0.00,,,0.00,Wunderground v.1.13,2013-05-18 06:46:00,
2013-05-18 01:47:00,55.1,51.0,29.90,East,88,6.0,7.0,86,0.00,,,0.00,Wunderground v.1.13,2013-05-18 06:47:00,
2013-05-18 01:48:00,55.1,51.0,29.90,ESE,103,6.0,8.0,86,0.00,,,0.00,Wunderground v.1.13,2013-05-18 06:48:00,
2013-05-18 01:51:00,55.2,51.1,29.90,NE,52,6.0,7.0,86,0.00,,,0.00,Wunderground v.1.13,2013-05-18 06:51:00,
2013-05-18 01:54:00,55.2,51.1,29.89,East,101,6.0,7.0,86,0.00,,,0.00,Wunderground v.1.13,2013-05-18 06:54:00,
2013-05-18 01:55:00,55.2,51.1,29.89,North,5,6.0,6.0,86,0.00,,,0.00,Wunderground v.1.13,2013-05-18 06:55:00,
2013-05-18 01:58:00,55.2,50.8,29.89,ESE,105,6.0,7.0,85,0.00,,,0.00,Wunderground v.1.13,2013-05-18 06:58:00,
2013-05-18 02:00:00,55.1,50.7,29.89,East,82,6.0,6.0,85,0.00,,,0.00,Wunderground v.1.13,2013-05-18 07:00:00,
2013-05-18 02:01:00,55.1,50.7,29.89,ENE,59,6.0,6.0,85,0.00,,,0.00,Wunderground v.1.13,2013-05-18 07:01:00,
2013-05-18 02:03:00,55.1,50.7,29.89,East,92,6.0,7.0,85,0.00,,,0.00,Wunderground v.1.13,2013-05-18 07:03:00,
2013-05-18 02:05:00,55.1,50.7,29.89,ENE,67,6.0,6.0,85,0.00,,,0.00,Wunderground v.1.13,2013-05-18 07:05:00,
2013-05-18 02:06:00,55.1,50.7,29.89,ENE,58,6.0,6.0,85,0.00,,,0.00,Wunderground v.1.13,2013-05-18 07:06:00,
2013-05-18 02:10:00,55.2,51.1,29.90,ENE,63,5.0,5.0,86,0.00,,,0.00,Wunderground v.1.13,2013-05-18 07:10:00,
2013-05-18 02:11:00,55.2,51.1,29.90,East,83,5.0,5.0,86,0.00,,,0.00,Wunderground v.1.13,2013-05-18 07:11:00,
2013-05-18 02:16:00,55.2,51.1,29.89,East,83,5.0,5.0,86,0.00,,,0.00,Wunderground v.1.13,2013-05-18 07:16:00,
2013-05-18 02:17:00,55.2,51.1,29.89,ESE,102,5.0,7.0,86,0.00,,,0.00,Wunderground v.1.13,2013-05-18 07:17:00,
2013-05-18 02:18:00,55.2,51.1,29.88,ESE,115,5.0,9.0,86,0.00,,,0.00,Wunderground v.1.13,2013-05-18 07:18:00,
2013-05-18 02:22:00,55.1,51.0,29.88,ESE,118,6.0,7.0,86,0.00,,,0.00,Wunderground v.1.13,2013-05-18 07:22:00,
2013-05-18 02:23:00,55.1,51.0,29.88,East,88,6.0,7.0,86,0.00,,,0.00,Wunderground v.1.13,2013-05-18 07:23:00,
2013-05-18 02:24:00,55.1,51.0,29.88,ESE,109,6.0,7.0,86,0.00,,,0.00,Wunderground v.1.13,2013-05-18 07:24:00,
2013-05-18 02:25:00,55.1,51.0,29.88,ESE,103,6.0,9.0,86,0.00,,,0.00,Wunderground v.1.13,2013-05-18 07:25:00,
2013-05-18 02:28:00,55.0,50.9,29.88,ESE,116,7.0,9.0,86,0.00,,,0.00,Wunderground v.1.13,2013-05-18 07:28:00,
2013-05-18 02:31:00,55.0,50.9,29.88,East,92,7.0,9.0,86,0.00,,,0.00,Wunderground v.1.13,2013-05-18 07:31:00,
2013-05-18 02:34:00,55.0,50.9,29.88,ESE,111,8.0,12.0,86,0.00,,,0.00,Wunderground v.1.13,2013-05-18 07:34:00,
2013-05-18 02:36:00,55.0,50.9,29.88,SE,128,8.0,9.0,86,0.00,,,0.00,Wunderground v.1.13,2013-05-18 07:36:00,
2013-05-18 02:39:00,54.9,50.8,29.88,East,84,8.0,12.0,86,0.00,,,0.00,Wunderground v.1.13,2013-05-18 07:39:00,
2013-05-18 02:40:00,54.9,50.8,29.88,ESE,109,8.0,9.0,86,0.00,,,0.00,Wunderground v.1.13,2013-05-18 07:40:00,
2013-05-18 02:41:00,54.9,50.8,29.88,ESE,119,9.0,12.0,86,0.00,,,0.00,Wunderground v.1.13,2013-05-18 07:41:00,
2013-05-18 02:45:00,54.8,50.7,29.87,ESE,106,10.0,10.0,86,0.00,,,0.00,Wunderground v.1.13,2013-05-18 07:45:00,
2013-05-18 02:46:00,54.8,50.7,29.87,ESE,120,10.0,10.0,86,0.00,,,0.00,Wunderground v.1.13,2013-05-18 07:46:00,
2013-05-18 02:47:00,54.8,50.7,29.87,SE,125,10.0,18.0,86,0.00,,,0.00,Wunderground v.1.13,2013-05-18 07:47:00,
2013-05-18 02:48:00,54.8,50.7,29.87,ESE,111,10.0,18.0,86,0.00,,,0.00,Wunderground v.1.13,2013-05-18 07:48:00,
2013-05-18 02:51:00,54.8,50.7,29.87,ESE,107,10.0,10.0,86,0.00,,,0.00,Wunderground v.1.13,2013-05-18 07:51:00,
2013-05-18 02:53:00,54.7,50.6,29.87,ESE,108,10.0,10.0,86,0.00,,,0.00,Wunderground v.1.13,2013-05-18 07:53:00,
2013-05-18 02:54:00,54.7,50.6,29.87,East,100,10.0,12.0,86,0.00,,,0.00,Wunderground v.1.13,2013-05-18 07:54:00,
2013-05-18 02:58:00,54.6,50.5,29.86,ESE,117,10.0,11.0,86,0.00,,,0.00,Wunderground v.1.13,2013-05-18 07:58:00,
2013-05-18 02:59:00,54.6,50.5,29.86,ESE,111,10.0,12.0,86,0.00,,,0.00,Wunderground v.1.13,2013-05-18 07:59:00,
2013-05-18 03:02:00,54.6,50.5,29.86,ESE,108,9.0,12.0,86,0.00,,,0.00,Wunderground v.1.13,2013-05-18 08:02:00,
2013-05-18 03:04:00,54.5,50.4,29.86,ESE,106,9.0,13.0,86,0.00,,,0.00,Wunderground v.1.13,2013-05-18 08:04:00,
2013-05-18 03:06:00,54.5,50.4,29.86,East,101,9.0,9.0,86,0.00,,,0.00,Wunderground v.1.13,2013-05-18 08:06:00,
2013-05-18 03:08:00,54.5,50.4,29.86,SE,126,9.0,18.0,86,0.00,,,0.00,Wunderground v.1.13,2013-05-18 08:08:00,
2013-05-18 03:11:00,54.4,50.3,29.85,ESE,121,10.0,11.0,86,0.00,,,0.00,Wunderground v.1.13,2013-05-18 08:11:00,
2013-05-18 03:12:00,54.4,50.3,29.86,ESE,120,10.0,12.0,86,0.00,,,0.00,Wunderground v.1.13,2013-05-18 08:12:00,
2013-05-18 03:15:00,54.4,50.3,29.85,East,99,11.0,11.0,86,0.00,,,0.00,Wunderground v.1.13,2013-05-18 08:15:00,
2013-05-18 03:17:00,54.3,50.2,29.85,SE,125,11.0,12.0,86,0.00,,,0.00,Wunderground v.1.13,2013-05-18 08:17:00,
2013-05-18 03:18:00,54.3,50.2,29.86,ESE,117,11.0,12.0,86,0.00,,,0.00,Wunderground v.1.13,2013-05-18 08:18:00,
2013-05-18 03:19:00,54.4,50.3,29.85,East,96,11.0,12.0,86,0.00,,,0.00,Wunderground v.1.13,2013-05-18 08:19:00,
2013-05-18 03:24:00,54.3,50.2,29.86,ESE,114,10.0,10.0,86,0.00,,,0.00,Wunderground v.1.13,2013-05-18 08:24:00,
2013-05-18 03:25:00,54.3,50.2,29.86,East,93,9.0,9.0,86,0.00,,,0.00,Wunderground v.1.13,2013-05-18 08:25:00,
2013-05-18 03:28:00,54.3,50.2,29.86,NE,56,8.0,9.0,86,0.00,,,0.00,Wunderground v.1.13,2013-05-18 08:28:00,
2013-05-18 03:29:00,54.3,50.2,29.86,ENE,71,8.0,11.0,86,0.00,,,0.00,Wunderground v.1.13,2013-05-18 08:29:00,
2013-05-18 03:30:00,54.3,50.2,29.86,NE,52,7.0,7.0,86,0.00,,,0.00,Wunderground v.1.13,2013-05-18 08:30:00,
2013-05-18 03:35:00,54.3,50.2,29.86,ENE,63,6.0,6.0,86,0.00,,,0.00,Wunderground v.1.13,2013-05-18 08:35:00,
2013-05-18 03:36:00,54.3,50.2,29.86,ESE,107,5.0,9.0,86,0.00,,,0.00,Wunderground v.1.13,2013-05-18 08:36:00,
2013-05-18 03:37:00,54.3,50.2,29.86,East,79,5.0,9.0,86,0.00,,,0.00,Wunderground v.1.13,2013-05-18 08:37:00,
2013-05-18 03:39:00,54.3,50.5,29.86,ESE,103,6.0,9.0,87,0.00,,,0.00,Wunderground v.1.13,2013-05-18 08:39:00,
2013-05-18 03:42:00,54.3,50.2,29.85,ESE,114,6.0,10.0,86,0.00,,,0.00,Wunderground v.1.13,2013-05-18 08:42:00,
2013-05-18 03:43:00,54.3,50.2,29.85,ESE,111,6.0,10.0,86,0.00,,,0.00,Wunderground v.1.13,2013-05-18 08:43:00,
2013-05-18 03:44:00,54.3,50.2,29.85,ESE,103,7.0,12.0,86,0.00,,,0.00,Wunderground v.1.13,2013-05-18 08:44:00,
2013-05-18 03:48:00,54.3,50.5,29.86,ESE,107,8.0,12.0,87,0.00,,,0.00,Wunderground v.1.13,2013-05-18 08:48:00,
2013-05-18 03:51:00,54.3,50.2,29.86,ESE,123,9.0,9.0,86,0.00,,,0.00,Wunderground v.1.13,2013-05-18 08:51:00,
2013-05-18 03:53:00,54.3,50.2,29.86,ESE,118,9.0,10.0,86,0.00,,,0.00,Wunderground v.1.13,2013-05-18 08:53:00,
2013-05-18 03:55:00,54.3,50.5,29.86,ESE,107,9.0,9.0,87,0.00,,,0.00,Wunderground v.1.13,2013-05-18 08:55:00,
2013-05-18 03:59:00,54.4,50.6,29.86,ESE,117,9.0,11.0,87,0.00,,,0.00,Wunderground v.1.13,2013-05-18 08:59:00,
2013-05-18 04:00:00,54.4,50.6,29.86,East,86,9.0,9.0,87,0.00,,,0.00,Wunderground v.1.13,2013-05-18 09:00:00,
2013-05-18 04:01:00,54.4,50.6,29.86,East,101,9.0,9.0,87,0.00,,,0.00,Wunderground v.1.13,2013-05-18 09:01:00,
2013-05-18 04:02:00,54.4,50.3,29.86,ESE,115,9.0,9.0,86,0.00,,,0.00,Wunderground v.1.13,2013-05-18 09:02:00,
2013-05-18 04:05:00,54.4,50.3,29.86,ESE,118,9.0,9.0,86,0.00,,,0.00,Wunderground v.1.13,2013-05-18 09:05:00,
2013-05-18 04:08:00,54.4,50.3,29.86,East,83,8.0,10.0,86,0.00,,,0.00,Wunderground v.1.13,2013-05-18 09:08:00,
2013-05-18 04:11:00,54.4,50.3,29.86,ESE,103,7.0,7.0,86,0.00,,,0.00,Wunderground v.1.13,2013-05-18 09:11:00,
2013-05-18 04:12:00,54.4,50.3,29.86,East,98,7.0,7.0,86,0.00,,,0.00,Wunderground v.1.13,2013-05-18 09:12:00,
2013-05-18 04:14:00,54.4,50.3,29.86,East,101,6.0,7.0,86,0.00,,,0.00,Wunderground v.1.13,2013-05-18 09:14:00,
2013-05-18 04:16:00,54.4,50.3,29.87,ENE,57,6.0,6.0,86,0.00,,,0.00,Wunderground v.1.13,2013-05-18 09:16:00,
2013-05-18 04:17:00,54.5,50.4,29.87,East,80,5.0,6.0,86,0.00,,,0.00,Wunderground v.1.13,2013-05-18 09:17:00,
2013-05-18 04:18:00,54.4,50.3,29.87,East,90,5.0,6.0,86,0.00,,,0.00,Wunderground v.1.13,2013-05-18 09:18:00,
2013-05-18 04:22:00,54.5,50.4,29.87,ESE,105,5.0,5.0,86,0.00,,,0.00,Wunderground v.1.13,2013-05-18 09:22:00,
2013-05-18 04:23:00,54.5,50.4,29.87,ESE,109,5.0,6.0,86,0.00,,,0.00,Wunderground v.1.13,2013-05-18 09:23:00,
2013-05-18 04:24:00,54.5,50.4,29.87,ESE,109,5.0,6.0,86,0.00,,,0.00,Wunderground v.1.13,2013-05-18 09:24:00,
2013-05-18 04:25:00,54.5,50.4,29.87,ESE,107,5.0,5.0,86,0.00,,,0.00,Wunderground v.1.13,2013-05-18 09:25:00,
2013-05-18 04:28:00,54.5,50.4,29.87,East,90,5.0,6.0,86,0.00,,,0.00,Wunderground v.1.13,2013-05-18 09:28:00,
2013-05-18 04:30:00,54.5,50.4,29.88,ENE,76,5.0,5.0,86,0.00,,,0.00,Wunderground v.1.13,2013-05-18 09:30:00,
2013-05-18 04:31:00,54.5,50.4,29.88,ENE,76,5.0,5.0,86,0.00,,,0.00,Wunderground v.1.13,2013-05-18 09:31:00,
2013-05-18 04:33:00,54.5,50.4,29.88,ENE,76,5.0,5.0,86,0.00,,,0.00,Wunderground v.1.13,2013-05-18 09:33:00,
2013-05-18 04:35:00,54.5,50.4,29.88,ENE,76,4.0,4.0,86,0.00,,,0.00,Wunderground v.1.13,2013-05-18 09:35:00,
2013-05-18 04:38:00,54.6,50.5,29.89,ENE,76,3.0,4.0,86,0.00,,,0.00,Wunderground v.1.13,2013-05-18 09:38:00,
2013-05-18 04:40:00,54.5,50.4,29.89,ENE,76,2.0,2.0,86,0.00,,,0.00,Wunderground v.1.13,2013-05-18 09:40:00,
2013-05-18 04:41:00,54.5,50.4,29.89,ENE,76,1.0,2.0,86,0.00,,,0.00,Wunderground v.1.13,2013-05-18 09:41:00,
2013-05-18 04:42:00,54.5,50.4,29.89,ENE,76,1.0,2.0,86,0.00,,,0.00,Wunderground v.1.13,2013-05-18 09:42:00,
2013-05-18 04:44:00,54.5,50.4,29.90,ENE,76,1.0,2.0,86,0.00,,,0.01,Wunderground v.1.13,2013-05-18 09:44:00,
2013-05-18 04:46:00,54.4,50.3,29.90,ENE,76,1.0,4.0,86,0.00,,,0.01,Wunderground v.1.13,2013-05-18 09:46:00,
2013-05-18 04:51:00,54.3,50.5,29.90,ENE,76,1.0,2.0,87,0.00,,,0.01,Wunderground v.1.13,2013-05-18 09:51:00,
2013-05-18 04:52:00,54.3,50.5,29.90,ENE,76,1.0,2.0,87,0.00,,,0.01,Wunderground v.1.13,2013-05-18 09:52:00,
2013-05-18 04:53:00,54.2,50.4,29.91,ENE,76,1.0,2.0,87,0.00,,,0.01,Wunderground v.1.13,2013-05-18 09:53:00,
2013-05-18 04:56:00,54.1,50.3,29.91,ENE,76,2.0,2.0,87,0.06,,,0.02,Wunderground v.1.13,2013-05-18 09:56:00,
2013-05-18 04:59:00,54.0,50.2,29.91,ENE,76,2.0,2.0,87,0.13,,,0.03,Wunderground v.1.13,2013-05-18 09:59:00,
2013-05-18 05:01:00,54.0,50.5,29.91,ENE,76,2.0,2.0,88,0.13,,,0.03,Wunderground v.1.13,2013-05-18 10:01:00,
2013-05-18 05:03:00,53.9,50.4,29.91,ENE,76,1.0,2.0,88,0.15,,,0.04,Wunderground v.1.13,2013-05-18 10:03:00,
2013-05-18 05:04:00,53.9,50.4,29.91,ENE,76,1.0,2.0,88,0.15,,,0.04,Wunderground v.1.13,2013-05-18 10:04:00,
2013-05-18 05:05:00,53.9,50.4,29.91,ENE,76,1.0,2.0,88,0.15,,,0.04,Wunderground v.1.13,2013-05-18 10:05:00,
2013-05-18 05:06:00,53.8,50.3,29.91,ENE,76,1.0,2.0,88,0.15,,,0.04,Wunderground v.1.13,2013-05-18 10:06:00,
2013-05-18 05:10:00,53.7,50.5,29.91,ENE,76,0.0,0.0,89,0.08,,,0.04,Wunderground v.1.13,2013-05-18 10:10:00,
2013-05-18 05:12:00,53.7,50.5,29.91,ENE,76,0.0,0.0,89,0.07,,,0.05,Wunderground v.1.13,2013-05-18 10:12:00,
2013-05-18 05:13:00,53.7,50.5,29.91,ENE,76,0.0,0.0,89,0.45,,,0.06,Wunderground v.1.13,2013-05-18 10:13:00,
2013-05-18 05:14:00,53.7,50.5,29.91,ENE,76,0.0,0.0,89,0.75,,,0.07,Wunderground v.1.13,2013-05-18 10:14:00,
2013-05-18 05:17:00,53.7,50.5,29.92,ENE,76,0.0,2.0,89,1.91,,,0.14,Wunderground v.1.13,2013-05-18 10:17:00,
2013-05-18 05:20:00,53.7,50.8,29.92,ENE,76,1.0,1.0,90,0.69,,,0.20,Wunderground v.1.13,2013-05-18 10:20:00,
2013-05-18 05:21:00,53.7,50.8,29.92,ENE,76,1.0,1.0,90,0.46,,,0.20,Wunderground v.1.13,2013-05-18 10:21:00,
2013-05-18 05:22:00,53.7,50.8,29.92,ENE,76,1.0,1.0,90,0.42,,,0.21,Wunderground v.1.13,2013-05-18 10:22:00,
2013-05-18 05:23:00,53.7,50.8,29.92,ENE,76,1.0,1.0,90,0.77,,,0.23,Wunderground v.1.13,2013-05-18 10:23:00,
2013-05-18 05:27:00,53.6,50.7,29.92,ENE,76,1.0,1.0,90,1.32,,,0.31,Wunderground v.1.13,2013-05-18 10:27:00,
2013-05-18 05:28:00,53.6,50.7,29.92,ENE,76,0.0,1.0,90,0.91,,,0.32,Wunderground v.1.13,2013-05-18 10:28:00,
2013-05-18 05:30:00,53.6,50.7,29.92,ENE,76,0.0,1.0,90,0.48,,,0.36,Wunderground v.1.13,2013-05-18 10:30:00,
2013-05-18 05:34:00,53.6,51.0,29.92,ENE,76,1.0,2.0,91,0.39,,,0.38,Wunderground v.1.13,2013-05-18 10:34:00,
2013-05-18 05:37:00,53.7,51.1,29.92,ENE,76,1.0,3.0,91,0.14,,,0.38,Wunderground v.1.13,2013-05-18 10:37:00,
2013-05-18 05:39:00,53.7,51.1,29.92,ENE,76,2.0,5.0,91,0.12,,,0.39,Wunderground v.1.13,2013-05-18 10:39:00,
2013-05-18 05:40:00,53.7,51.1,29.92,ENE,76,2.0,2.0,91,0.36,,,0.40,Wunderground v.1.13,2013-05-18 10:40:00,
2013-05-18 05:42:00,53.8,51.2,29.92,ENE,71,2.0,4.0,91,0.25,,,0.41,Wunderground v.1.13,2013-05-18 10:42:00,
2013-05-18 05:43:00,53.7,51.1,29.92,ENE,72,2.0,5.0,91,0.25,,,0.41,Wunderground v.1.13,2013-05-18 10:43:00,
2013-05-18 05:44:00,53.7,51.1,29.91,NE,55,3.0,6.0,91,0.44,,,0.42,Wunderground v.1.13,2013-05-18 10:44:00,
2013-05-18 05:47:00,53.6,51.0,29.91,ENE,60,4.0,6.0,91,1.33,,,0.48,Wunderground v.1.13,2013-05-18 10:47:00,
2013-05-18 05:50:00,53.5,50.9,29.91,ENE,57,5.0,5.0,91,0.57,,,0.51,Wunderground v.1.13,2013-05-18 10:50:00,
2013-05-18 05:53:00,53.6,51.3,29.91,NE,52,5.0,6.0,92,0.31,,,0.53,Wunderground v.1.13,2013-05-18 10:53:00,
2013-05-18 05:54:00,53.6,51.3,29.91,NE,55,5.0,6.0,92,0.52,,,0.54,Wunderground v.1.13,2013-05-18 10:54:00,
2013-05-18 05:55:00,53.5,51.2,29.91,NE,55,5.0,5.0,92,0.36,,,0.54,Wunderground v.1.13,2013-05-18 10:55:00,
2013-05-18 06:00:00,53.6,51.3,29.91,East,87,4.0,5.0,92,0.24,,,0.57,Wunderground v.1.13,2013-05-18 11:00:00,
2013-05-18 06:01:00,53.6,51.3,29.91,East,86,4.0,5.0,92,0.55,,,0.58,Wunderground v.1.13,2013-05-18 11:01:00,
2013-05-18 06:02:00,53.6,51.3,29.91,East,83,4.0,5.0,92,0.31,,,0.58,Wunderground v.1.13,2013-05-18 11:02:00,
2013-05-18 06:03:00,53.6,51.3,29.91,East,85,4.0,5.0,92,0.25,,,0.59,Wunderground v.1.13,2013-05-18 11:03:00,
2013-05-18 06:07:00,53.7,51.4,29.91,NE,44,3.0,4.0,92,0.34,,,0.61,Wunderground v.1.13,2013-05-18 11:07:00,
2013-05-18 06:08:00,53.7,51.4,29.90,ENE,59,3.0,7.0,92,0.39,,,0.62,Wunderground v.1.13,2013-05-18 11:08:00,
2013-05-18 06:09:00,53.7,51.4,29.90,ENE,76,4.0,7.0,92,0.39,,,0.62,Wunderground v.1.13,2013-05-18 11:09:00,
2013-05-18 06:12:00,53.7,51.4,29.90,NE,49,4.0,6.0,92,0.22,,,0.63,Wunderground v.1.13,2013-05-18 11:12:00,
2013-05-18 06:14:00,53.8,51.5,29.91,ENE,65,5.0,6.0,92,0.24,,,0.64,Wunderground v.1.13,2013-05-18 11:14:00,
2013-05-18 06:16:00,53.8,51.5,29.91,ENE,65,5.0,5.0,92,0.21,,,0.64,Wunderground v.1.13,2013-05-18 11:16:00,
2013-05-18 06:20:00,53.6,51.3,29.90,ENE,63,5.0,6.0,92,0.09,,,0.64,Wunderground v.1.13,2013-05-18 11:20:00,
2013-05-18 06:22:00,53.7,51.7,29.90,NE,56,5.0,6.0,93,0.08,,,0.65,Wunderground v.1.13,2013-05-18 11:22:00,
2013-05-18 06:23:00,53.7,51.7,29.90,ENE,63,5.0,6.0,93,0.08,,,0.65,Wunderground v.1.13,2013-05-18 11:23:00,
2013-05-18 06:27:00,53.7,51.7,29.91,East,98,5.0,7.0,93,0.14,,,0.66,Wunderground v.1.13,2013-05-18 11:27:00,
2013-05-18 06:28:00,53.7,51.7,29.91,East,89,5.0,7.0,93,0.14,,,0.66,Wunderground v.1.13,2013-05-18 11:28:00,
2013-05-18 06:29:00,53.7,51.7,29.91,ESE,115,5.0,7.0,93,0.14,,,0.66,Wunderground v.1.13,2013-05-18 11:29:00,
2013-05-18 06:30:00,53.6,51.6,29.91,ESE,116,5.0,6.0,93,0.10,,,0.66,Wunderground v.1.13,2013-05-18 11:30:00,
2013-05-18 06:33:00,53.6,51.6,29.91,ESE,119,6.0,8.0,93,0.08,,,0.66,Wunderground v.1.13,2013-05-18 11:33:00,
2013-05-18 06:35:00,53.6,51.6,29.91,ESE,118,6.0,9.0,93,0.07,,,0.67,Wunderground v.1.13,2013-05-18 11:35:00,
2013-05-18 06:36:00,53.6,51.6,29.91,ESE,117,6.0,9.0,93,0.07,,,0.67,Wunderground v.1.13,2013-05-18 11:36:00,
2013-05-18 06:40:00,53.6,51.6,29.90,ESE,104,6.0,6.0,93,0.16,,,0.68,Wunderground v.1.13,2013-05-18 11:40:00,
2013-05-18 06:41:00,53.6,51.6,29.90,ENE,76,6.0,6.0,93,0.15,,,0.68,Wunderground v.1.13,2013-05-18 11:41:00,
2013-05-18 06:43:00,53.5,51.5,29.89,East,96,5.0,8.0,93,0.12,,,0.69,Wunderground v.1.13,2013-05-18 11:43:00,
2013-05-18 06:44:00,53.5,51.5,29.90,East,99,5.0,8.0,93,0.12,,,0.69,Wunderground v.1.13,2013-05-18 11:44:00,
2013-05-18 06:48:00,53.5,51.5,29.90,ESE,107,5.0,7.0,93,0.17,,,0.70,Wunderground v.1.13,2013-05-18 11:48:00,
2013-05-18 06:50:00,53.4,51.4,29.90,ESE,108,5.0,6.0,93,0.13,,,0.70,Wunderground v.1.13,2013-05-18 11:50:00,
2013-05-18 06:51:00,53.4,51.4,29.90,ESE,107,5.0,6.0,93,0.13,,,0.70,Wunderground v.1.13,2013-05-18 11:51:00,
2013-05-18 06:54:00,53.4,51.4,29.90,ESE,105,5.0,6.0,93,0.16,,,0.71,Wunderground v.1.13,2013-05-18 11:54:00,
2013-05-18 06:56:00,53.4,51.4,29.91,ESE,113,5.0,9.0,93,0.16,,,0.71,Wunderground v.1.13,2013-05-18 11:56:00,
2013-05-18 06:57:00,53.4,51.4,29.91,ESE,113,5.0,9.0,93,0.16,,,0.71,Wunderground v.1.13,2013-05-18 11:57:00,
2013-05-18 06:58:00,53.4,51.4,29.91,ESE,118,5.0,9.0,93,0.12,,,0.71,Wunderground v.1.13,2013-05-18 11:58:00,
2013-05-18 07:00:00,53.4,51.4,29.91,ESE,108,6.0,8.0,93,0.09,,,0.71,Wunderground v.1.13,2013-05-18 12:00:00,
2013-05-18 07:02:00,53.4,51.4,29.91,ESE,115,6.0,9.0,93,0.07,,,0.71,Wunderground v.1.13,2013-05-18 12:02:00,
2013-05-18 07:05:00,53.5,51.5,29.90,ESE,118,7.0,7.0,93,0.05,,,0.71,Wunderground v.1.13,2013-05-18 12:05:00,
2013-05-18 07:08:00,53.6,51.6,29.89,ESE,113,7.0,9.0,93,0.04,,,0.71,Wunderground v.1.13,2013-05-18 12:08:00,
2013-05-18 07:09:00,53.5,51.5,29.89,ESE,107,7.0,10.0,93,0.04,,,0.71,Wunderground v.1.13,2013-05-18 12:09:00,
2013-05-18 07:11:00,53.5,51.5,29.89,ESE,119,8.0,11.0,93,0.00,,,0.71,Wunderground v.1.13,2013-05-18 12:11:00,
2013-05-18 07:12:00,53.5,51.5,29.89,SE,127,8.0,11.0,93,0.00,,,0.71,Wunderground v.1.13,2013-05-18 12:12:00,
2013-05-18 07:14:00,53.6,51.6,29.89,ESE,107,8.0,11.0,93,0.00,,,0.71,Wunderground v.1.13,2013-05-18 12:14:00,
2013-05-18 07:17:00,53.5,51.5,29.89,ESE,103,8.0,8.0,93,0.00,,,0.71,Wunderground v.1.13,2013-05-18 12:17:00,
2013-05-18 07:18:00,53.5,51.5,29.89,ESE,117,8.0,8.0,93,0.00,,,0.71,Wunderground v.1.13,2013-05-18 12:18:00,
2013-05-18 07:20:00,53.5,51.5,29.89,ESE,108,7.0,7.0,93,0.00,,,0.71,Wunderground v.1.13,2013-05-18 12:20:00,
2013-05-18 07:21:00,53.5,51.5,29.89,ESE,109,7.0,7.0,93,0.00,,,0.71,Wunderground v.1.13,2013-05-18 12:21:00,
2013-05-18 07:22:00,53.5,51.5,29.89,ESE,109,7.0,7.0,93,0.00,,,0.71,Wunderground v.1.13,2013-05-18 12:22:00,
2013-05-18 07:24:00,53.5,51.5,29.89,ESE,111,6.0,7.0,93,0.00,,,0.71,Wunderground v.1.13,2013-05-18 12:24:00,
2013-05-18 07:28:00,53.5,51.5,29.89,East,96,5.0,8.0,93,0.00,,,0.71,Wunderground v.1.13,2013-05-18 12:28:00,
2013-05-18 07:29:00,53.5,51.5,29.89,ESE,103,5.0,8.0,93,0.00,,,0.71,Wunderground v.1.13,2013-05-18 12:29:00,
2013-05-18 07:30:00,53.5,51.5,29.89,ESE,102,5.0,5.0,93,0.00,,,0.71,Wunderground v.1.13,2013-05-18 12:30:00,
2013-05-18 07:35:00,53.6,51.6,29.90,ESE,113,6.0,7.0,93,0.00,,,0.71,Wunderground v.1.13,2013-05-18 12:35:00,
2013-05-18 07:36:00,53.6,51.6,29.90,ESE,113,6.0,7.0,93,0.00,,,0.71,Wunderground v.1.13,2013-05-18 12:36:00,
2013-05-18 07:37:00,53.7,51.7,29.90,ESE,114,6.0,7.0,93,0.00,,,0.71,Wunderground v.1.13,2013-05-18 12:37:00,
2013-05-18 07:38:00,53.7,51.7,29.90,ESE,117,6.0,7.0,93,0.00,,,0.71,Wunderground v.1.13,2013-05-18 12:38:00,
2013-05-18 07:39:00,53.8,52.1,29.90,ESE,109,6.0,8.0,94,0.00,,,0.71,Wunderground v.1.13,2013-05-18 12:39:00,
2013-05-18 07:41:00,53.7,52.0,29.89,ESE,109,6.0,9.0,94,0.00,,,0.71,Wunderground v.1.13,2013-05-18 12:41:00,
2013-05-18 07:43:00,53.8,52.1,29.89,ESE,120,6.0,9.0,94,0.00,,,0.71,Wunderground v.1.13,2013-05-18 12:43:00,
2013-05-18 07:45:00,53.8,52.1,29.89,ESE,113,6.0,6.0,94,0.00,,,0.71,Wunderground v.1.13,2013-05-18 12:45:00,
2013-05-18 07:47:00,53.8,52.1,29.89,SE,126,7.0,9.0,94,0.00,,,0.71,Wunderground v.1.13,2013-05-18 12:47:00,
2013-05-18 07:48:00,53.8,52.1,29.88,ESE,117,7.0,9.0,94,0.00,,,0.71,Wunderground v.1.13,2013-05-18 12:48:00,
2013-05-18 07:49:00,53.8,52.1,29.88,ESE,118,8.0,9.0,94,0.00,,,0.71,Wunderground v.1.13,2013-05-18 12:49:00,
2013-05-18 07:54:00,54.0,52.3,29.88,ESE,116,9.0,10.0,94,0.00,,,0.71,Wunderground v.1.13,2013-05-18 12:54:00,
2013-05-18 07:55:00,54.0,52.3,29.88,ESE,113,9.0,12.0,94,0.00,,,0.71,Wunderground v.1.13,2013-05-18 12:55:00,
2013-05-18 07:57:00,53.9,52.2,29.88,SE,128,9.0,12.0,94,0.00,,,0.71,Wunderground v.1.13,2013-05-18 12:57:00,
2013-05-18 08:01:00,53.9,52.2,29.89,SE,125,9.0,10.0,94,0.00,,,0.71,Wunderground v.1.13,2013-05-18 13:01:00,
2013-05-18 08:02:00,53.9,52.2,29.89,SE,126,9.0,10.0,94,0.00,,,0.71,Wunderground v.1.13,2013-05-18 13:02:00,
2013-05-18 08:03:00,53.9,52.2,29.89,SE,125,9.0,10.0,94,0.00,,,0.71,Wunderground v.1.13,2013-05-18 13:03:00,
2013-05-18 08:06:00,54.0,52.3,29.90,SE,125,7.0,8.0,94,0.00,,,0.71,Wunderground v.1.13,2013-05-18 13:06:00,
2013-05-18 08:07:00,54.0,52.3,29.90,SE,125,7.0,8.0,94,0.00,,,0.71,Wunderground v.1.13,2013-05-18 13:07:00,
2013-05-18 08:09:00,54.0,52.3,29.90,SE,125,6.0,8.0,94,0.00,,,0.71,Wunderground v.1.13,2013-05-18 13:09:00,
2013-05-18 08:11:00,54.1,52.4,29.90,SSE,159,5.0,5.0,94,0.00,,,0.71,Wunderground v.1.13,2013-05-18 13:11:00,
2013-05-18 08:13:00,54.1,52.1,29.89,SE,129,4.0,9.0,93,0.00,,,0.71,Wunderground v.1.13,2013-05-18 13:13:00,
2013-05-18 08:16:00,54.2,52.5,29.89,SE,124,5.0,6.0,94,0.00,,,0.71,Wunderground v.1.13,2013-05-18 13:16:00,
2013-05-18 08:17:00,54.2,52.5,29.89,ESE,123,5.0,7.0,94,0.00,,,0.71,Wunderground v.1.13,2013-05-18 13:17:00,
2013-05-18 08:19:00,54.3,52.6,29.89,ESE,119,6.0,8.0,94,0.00,,,0.71,Wunderground v.1.13,2013-05-18 13:19:00,
2013-05-18 08:21:00,54.3,52.6,29.88,ESE,111,7.0,9.0,94,0.00,,,0.71,Wunderground v.1.13,2013-05-18 13:21:00,
2013-05-18 08:22:00,54.3,52.6,29.88,ESE,109,7.0,9.0,94,0.00,,,0.71,Wunderground v.1.13,2013-05-18 13:22:00,
2013-05-18 08:23:00,54.3,52.6,29.88,East,94,7.0,9.0,94,0.00,,,0.71,Wunderground v.1.13,2013-05-18 13:23:00,
2013-05-18 08:24:00,54.3,52.6,29.87,ENE,71,8.0,9.0,94,0.00,,,0.71,Wunderground v.1.13,2013-05-18 13:24:00,
2013-05-18 08:27:00,54.3,52.3,29.87,ESE,119,8.0,10.0,93,0.00,,,0.71,Wunderground v.1.13,2013-05-18 13:27:00,
2013-05-18 08:28:00,54.2,52.2,29.87,ESE,122,8.0,10.0,93,0.00,,,0.71,Wunderground v.1.13,2013-05-18 13:28:00,
2013-05-18 08:29:00,54.2,52.2,29.88,ESE,123,8.0,10.0,93,0.00,,,0.71,Wunderground v.1.13,2013-05-18 13:29:00,
2013-05-18 08:32:00,54.3,52.3,29.88,ESE,122,8.0,11.0,93,0.00,,,0.71,Wunderground v.1.13,2013-05-18 13:32:00,
2013-05-18 08:35:00,54.3,52.3,29.88,SE,128,8.0,13.0,93,0.00,,,0.71,Wunderground v.1.13,2013-05-18 13:35:00,
2013-05-18 08:36:00,54.3,52.3,29.88,SE,129,9.0,13.0,93,0.00,,,0.72,Wunderground v.1.13,2013-05-18 13:36:00,
2013-05-18 08:37:00,54.3,52.3,29.88,ESE,122,9.0,13.0,93,0.00,,,0.72,Wunderground v.1.13,2013-05-18 13:37:00,
2013-05-18 08:38:00,54.3,52.3,29.88,ESE,123,9.0,13.0,93,0.00,,,0.72,Wunderground v.1.13,2013-05-18 13:38:00,
2013-05-18 08:39:00,54.3,52.3,29.88,SE,124,9.0,13.0,93,0.00,,,0.72,Wunderground v.1.13,2013-05-18 13:39:00,
2013-05-18 08:42:00,54.4,52.4,29.88,SE,129,9.0,11.0,93,0.00,,,0.72,Wunderground v.1.13,2013-05-18 13:42:00,
2013-05-18 08:44:00,54.4,52.4,29.88,ESE,119,9.0,11.0,93,0.00,,,0.72,Wunderground v.1.13,2013-05-18 13:44:00,
2013-05-18 08:45:00,54.5,52.5,29.88,ESE,116,9.0,9.0,93,0.00,,,0.72,Wunderground v.1.13,2013-05-18 13:45:00,
2013-05-18 08:46:00,54.5,52.8,29.88,ESE,123,9.0,9.0,94,0.00,,,0.72,Wunderground v.1.13,2013-05-18 13:46:00,
2013-05-18 08:50:00,54.5,52.8,29.88,ESE,115,8.0,8.0,94,0.00,,,0.72,Wunderground v.1.13,2013-05-18 13:50:00,
2013-05-18 08:51:00,54.5,52.8,29.89,SE,128,7.0,9.0,94,0.00,,,0.72,Wunderground v.1.13,2013-05-18 13:51:00,
2013-05-18 08:56:00,54.6,52.9,29.89,SE,140,6.0,6.0,94,0.00,,,0.72,Wunderground v.1.13,2013-05-18 13:56:00,
2013-05-18 08:57:00,54.6,52.9,29.90,SE,140,5.0,6.0,94,0.00,,,0.72,Wunderground v.1.13,2013-05-18 13:57:00,
2013-05-18 08:59:00,54.6,52.9,29.90,SE,140,4.0,6.0,94,0.00,,,0.72,Wunderground v.1.13,2013-05-18 13:59:00,
2013-05-18 09:02:00,54.6,52.9,29.91,SE,137,3.0,4.0,94,0.00,,,0.72,Wunderground v.1.13,2013-05-18 14:02:00,
2013-05-18 09:03:00,54.5,52.8,29.91,SE,138,3.0,4.0,94,0.00,,,0.72,Wunderground v.1.13,2013-05-18 14:03:00,
2013-05-18 09:06:00,54.5,52.8,29.91,SE,137,2.0,4.0,94,0.00,,,0.72,Wunderground v.1.13,2013-05-18 14:06:00,
2013-05-18 09:07:00,54.5,52.8,29.91,SE,137,2.0,4.0,94,0.00,,,0.72,Wunderground v.1.13,2013-05-18 14:07:00,
2013-05-18 09:08:00,54.5,52.8,29.91,SE,138,1.0,4.0,94,0.00,,,0.72,Wunderground v.1.13,2013-05-18 14:08:00,
2013-05-18 09:10:00,54.6,52.9,29.90,SE,137,1.0,3.0,94,0.00,,,0.73,Wunderground v.1.13,2013-05-18 14:10:00,
2013-05-18 09:13:00,54.5,52.8,29.90,ESE,121,2.0,8.0,94,0.00,,,0.73,Wunderground v.1.13,2013-05-18 14:13:00,
2013-05-18 09:14:00,54.5,52.8,29.89,ESE,114,2.0,9.0,94,0.00,,,0.73,Wunderground v.1.13,2013-05-18 14:14:00,
2013-05-18 09:17:00,54.6,52.9,29.88,East,89,4.0,6.0,94,0.09,,,0.74,Wunderground v.1.13,2013-05-18 14:17:00,
2013-05-18 09:19:00,54.6,52.9,29.88,ESE,107,5.0,10.0,94,0.23,,,0.75,Wunderground v.1.13,2013-05-18 14:19:00,
2013-05-18 09:21:00,54.6,52.9,29.87,East,84,7.0,8.0,94,0.19,,,0.75,Wunderground v.1.13,2013-05-18 14:21:00,
2013-05-18 09:24:00,54.6,52.9,29.86,ENE,60,7.0,8.0,94,0.12,,,0.76,Wunderground v.1.13,2013-05-18 14:24:00,
2013-05-18 09:25:00,54.6,52.9,29.86,NE,46,7.0,7.0,94,0.12,,,0.76,Wunderground v.1.13,2013-05-18 14:25:00,
2013-05-18 09:26:00,54.6,52.9,29.86,East,101,7.0,7.0,94,0.12,,,0.76,Wunderground v.1.13,2013-05-18 14:26:00,
2013-05-18 09:31:00,54.6,52.9,29.86,East,93,7.0,7.0,94,0.07,,,0.76,Wunderground v.1.13,2013-05-18 14:31:00,
2013-05-18 09:32:00,54.6,52.9,29.86,ESE,106,7.0,9.0,94,0.07,,,0.77,Wunderground v.1.13,2013-05-18 14:32:00,
2013-05-18 09:34:00,54.6,52.9,29.86,ESE,115,6.0,9.0,94,0.07,,,0.77,Wunderground v.1.13,2013-05-18 14:34:00,
2013-05-18 09:38:00,54.6,52.9,29.86,SE,130,8.0,14.0,94,0.07,,,0.77,Wunderground v.1.13,2013-05-18 14:38:00,
2013-05-18 09:39:00,54.6,52.9,29.86,SE,126,9.0,14.0,94,0.07,,,0.77,Wunderground v.1.13,2013-05-18 14:39:00,
2013-05-18 09:40:00,54.7,53.0,29.86,SE,125,9.0,13.0,94,0.07,,,0.77,Wunderground v.1.13,2013-05-18 14:40:00,
2013-05-18 09:42:00,54.7,53.0,29.86,SE,127,10.0,13.0,94,0.06,,,0.77,Wunderground v.1.13,2013-05-18 14:42:00,
2013-05-18 09:47:00,54.8,53.1,29.86,ESE,123,10.0,12.0,94,0.04,,,0.77,Wunderground v.1.13,2013-05-18 14:47:00,
2013-05-18 09:48:00,54.8,53.1,29.86,SE,138,9.0,12.0,94,0.04,,,0.77,Wunderground v.1.13,2013-05-18 14:48:00,
2013-05-18 09:49:00,54.8,53.1,29.86,ESE,123,9.0,12.0,94,0.00,,,0.77,Wunderground v.1.13,2013-05-18 14:49:00,
2013-05-18 09:53:00,55.1,53.4,29.86,SE,124,9.0,13.0,94,0.00,,,0.77,Wunderground v.1.13,2013-05-18 14:53:00,
2013-05-18 09:54:00,55.2,53.5,29.86,ESE,121,9.0,13.0,94,0.00,,,0.77,Wunderground v.1.13,2013-05-18 14:54:00,
2013-05-18 09:57:00,55.2,53.5,29.86,ESE,122,9.0,13.0,94,0.00,,,0.77,Wunderground v.1.13,2013-05-18 14:57:00,
2013-05-18 09:58:00,55.2,53.5,29.86,ESE,117,10.0,13.0,94,0.00,,,0.77,Wunderground v.1.13,2013-05-18 14:58:00,
2013-05-18 09:59:00,55.2,53.5,29.86,ESE,123,10.0,13.0,94,0.00,,,0.77,Wunderground v.1.13,2013-05-18 14:59:00,
2013-05-18 10:04:00,55.4,53.7,29.85,ESE,123,10.0,10.0,94,0.00,,,0.77,Wunderground v.1.13,2013-05-18 15:04:00,
2013-05-18 10:05:00,55.4,53.7,29.86,ESE,121,10.0,10.0,94,0.00,,,0.77,Wunderground v.1.13,2013-05-18 15:05:00,
2013-05-18 10:09:00,55.4,53.7,29.85,ESE,123,10.0,12.0,94,0.00,,,0.77,Wunderground v.1.13,2013-05-18 15:09:00,
2013-05-18 10:10:00,55.5,53.8,29.85,ESE,123,10.0,12.0,94,0.00,,,0.77,Wunderground v.1.13,2013-05-18 15:10:00,
2013-05-18 10:11:00,55.5,53.8,29.84,SE,126,10.0,12.0,94,0.00,,,0.77,Wunderground v.1.13,2013-05-18 15:11:00,
2013-05-18 10:13:00,55.5,53.8,29.84,ESE,120,10.0,15.0,94,0.00,,,0.77,Wunderground v.1.13,2013-05-18 15:13:00,
2013-05-18 10:15:00,55.5,53.8,29.84,ESE,119,11.0,11.0,94,0.00,,,0.77,Wunderground v.1.13,2013-05-18 15:15:00,
2013-05-18 10:18:00,55.6,53.9,29.84,ESE,123,10.0,11.0,94,0.00,,,0.77,Wunderground v.1.13,2013-05-18 15:18:00,
2013-05-18 10:19:00,55.7,54.0,29.84,ESE,111,10.0,11.0,94,0.00,,,0.77,Wunderground v.1.13,2013-05-18 15:19:00,
2013-05-18 10:20:00,55.8,54.1,29.84,ESE,123,10.0,11.0,94,0.00,,,0.77,Wunderground v.1.13,2013-05-18 15:20:00,
2013-05-18 10:24:00,56.0,54.3,29.84,SE,127,10.0,13.0,94,0.00,,,0.77,Wunderground v.1.13,2013-05-18 15:24:00,
2013-05-18 10:26:00,56.0,54.3,29.84,ESE,122,10.0,10.0,94,0.00,,,0.77,Wunderground v.1.13,2013-05-18 15:26:00,
2013-05-18 10:27:00,56.1,54.4,29.84,SE,130,10.0,10.0,94,0.00,,,0.77,Wunderground v.1.13,2013-05-18 15:27:00,
2013-05-18 10:29:00,56.1,54.4,29.84,South,186,8.0,10.0,94,0.00,,,0.77,Wunderground v.1.13,2013-05-18 15:29:00,
2013-05-18 10:33:00,56.3,54.6,29.84,ESE,113,6.0,9.0,94,0.00,,,0.77,Wunderground v.1.13,2013-05-18 15:33:00,
2013-05-18 10:34:00,56.3,54.6,29.84,ESE,110,6.0,9.0,94,0.00,,,0.77,Wunderground v.1.13,2013-05-18 15:34:00,
2013-05-18 10:36:00,56.5,54.8,29.84,ESE,123,5.0,7.0,94,0.00,,,0.77,Wunderground v.1.13,2013-05-18 15:36:00,
2013-05-18 10:38:00,56.5,54.8,29.84,SE,128,6.0,9.0,94,0.00,,,0.77,Wunderground v.1.13,2013-05-18 15:38:00,
2013-05-18 10:39:00,56.6,54.9,29.84,SE,125,6.0,9.0,94,0.00,,,0.77,Wunderground v.1.13,2013-05-18 15:39:00,
2013-05-18 10:40:00,56.6,54.9,29.84,SE,127,7.0,9.0,94,0.00,,,0.77,Wunderground v.1.13,2013-05-18 15:40:00,
2013-05-18 10:41:00,56.6,54.9,29.84,ESE,122,7.0,9.0,94,0.00,,,0.77,Wunderground v.1.13,2013-05-18 15:41:00,
2013-05-18 10:44:00,56.8,55.1,29.84,SE,127,8.0,9.0,94,0.00,,,0.77,Wunderground v.1.13,2013-05-18 15:44:00,
2013-05-18 10:47:00,56.9,55.2,29.84,SE,126,8.0,11.0,94,0.00,,,0.77,Wunderground v.1.13,2013-05-18 15:47:00,
2013-05-18 10:48:00,56.9,55.2,29.84,SE,130,8.0,11.0,94,0.00,,,0.77,Wunderground v.1.13,2013-05-18 15:48:00,
2013-05-18 10:49:00,57.0,55.3,29.84,SE,130,8.0,11.0,94,0.00,,,0.77,Wunderground v.1.13,2013-05-18 15:49:00,
2013-05-18 10:50:00,57.1,55.4,29.84,SE,128,7.0,7.0,94,0.00,,,0.77,Wunderground v.1.13,2013-05-18 15:50:00,
2013-05-18 10:56:00,57.5,55.8,29.84,SE,124,6.0,6.0,94,0.00,,,0.77,Wunderground v.1.13,2013-05-18 15:56:00,
2013-05-18 10:57:00,57.6,55.9,29.84,ESE,122,5.0,6.0,94,0.00,,,0.77,Wunderground v.1.13,2013-05-18 15:57:00,
2013-05-18 10:58:00,57.7,56.0,29.84,South,171,5.0,7.0,94,0.00,,,0.77,Wunderground v.1.13,2013-05-18 15:58:00,
2013-05-18 11:01:00,57.8,56.1,29.84,SE,134,5.0,6.0,94,0.00,,,0.77,Wunderground v.1.13,2013-05-18 16:01:00,
2013-05-18 11:03:00,57.9,56.5,29.84,SE,130,5.0,6.0,95,0.00,,,0.77,Wunderground v.1.13,2013-05-18 16:03:00,
2013-05-18 11:04:00,57.9,56.5,29.84,ESE,118,5.0,11.0,95,0.00,,,0.77,Wunderground v.1.13,2013-05-18 16:04:00,
2013-05-18 11:06:00,58.1,56.7,29.83,ESE,119,6.0,10.0,95,0.00,,,0.77,Wunderground v.1.13,2013-05-18 16:06:00,
2013-05-18 11:07:00,58.1,56.7,29.84,ESE,123,6.0,10.0,95,0.00,,,0.77,Wunderground v.1.13,2013-05-18 16:07:00,
2013-05-18 11:11:00,58.5,56.8,29.84,SE,132,6.0,6.0,94,0.00,,,0.77,Wunderground v.1.13,2013-05-18 16:11:00,
2013-05-18 11:12:00,58.5,56.8,29.84,SSE,163,6.0,6.0,94,0.00,,,0.77,Wunderground v.1.13,2013-05-18 16:12:00,
2013-05-18 11:16:00,59.0,57.6,29.83,SE,125,5.0,8.0,95,0.00,,,0.77,Wunderground v.1.13,2013-05-18 16:16:00,
2013-05-18 11:18:00,59.4,57.7,29.84,SE,130,4.0,8.0,94,0.00,,,0.77,Wunderground v.1.13,2013-05-18 16:18:00,
2013-05-18 11:19:00,59.4,58.0,29.83,SW,218,4.0,8.0,95,0.00,,,0.77,Wunderground v.1.13,2013-05-18 16:19:00,
2013-05-18 11:20:00,59.4,58.0,29.84,ESE,122,4.0,6.0,95,0.00,,,0.77,Wunderground v.1.13,2013-05-18 16:20:00,
2013-05-18 11:24:00,60.0,58.6,29.84,SE,132,5.0,9.0,95,0.00,,,0.77,Wunderground v.1.13,2013-05-18 16:24:00,
2013-05-18 11:26:00,60.1,58.7,29.84,SSE,149,5.0,6.0,95,0.00,,,0.77,Wunderground v.1.13,2013-05-18 16:26:00,
2013-05-18 11:27:00,60.2,58.8,29.84,SSE,161,5.0,6.0,95,0.00,,,0.77,Wunderground v.1.13,2013-05-18 16:27:00,
2013-05-18 11:28:00,60.4,59.0,29.84,SSE,164,5.0,6.0,95,0.00,,,0.77,Wunderground v.1.13,2013-05-18 16:28:00,
2013-05-18 11:30:00,60.8,59.4,29.84,South,179,5.0,5.0,95,0.00,,,0.77,Wunderground v.1.13,2013-05-18 16:30:00,
2013-05-18 11:32:00,60.9,59.5,29.84,SSE,149,5.0,5.0,95,0.00,,,0.77,Wunderground v.1.13,2013-05-18 16:32:00,
2013-05-18 11:33:00,61.1,59.4,29.84,SSE,165,4.0,7.0,94,0.00,,,0.77,Wunderground v.1.13,2013-05-18 16:33:00,
2013-05-18 11:34:00,61.1,59.4,29.84,South,180,5.0,8.0,94,0.00,,,0.77,Wunderground v.1.13,2013-05-18 16:34:00,
2013-05-18 11:36:00,61.3,59.6,29.84,WNW,300,5.0,6.0,94,0.00,,,0.77,Wunderground v.1.13,2013-05-18 16:36:00,
2013-05-18 11:38:00,61.5,59.8,29.84,SE,146,4.0,7.0,94,0.00,,,0.77,Wunderground v.1.13,2013-05-18 16:38:00,
2013-05-18 11:39:00,61.5,59.8,29.84,SSE,148,4.0,7.0,94,0.00,,,0.77,Wunderground v.1.13,2013-05-18 16:39:00,
2013-05-18 11:42:00,61.6,59.9,29.84,South,174,4.0,6.0,94,0.00,,,0.77,Wunderground v.1.13,2013-05-18 16:42:00,
2013-05-18 11:43:00,61.7,60.0,29.84,SE,130,3.0,6.0,94,0.00,,,0.77,Wunderground v.1.13,2013-05-18 16:43:00,
2013-05-18 11:44:00,61.7,60.0,29.84,SW,232,3.0,6.0,94,0.00,,,0.77,Wunderground v.1.13,2013-05-18 16:44:00,
2013-05-18 11:48:00,61.7,60.0,29.84,WSW,240,2.0,3.0,94,0.00,,,0.77,Wunderground v.1.13,2013-05-18 16:48:00,
2013-05-18 11:49:00,61.7,60.0,29.84,South,179,2.0,3.0,94,0.00,,,0.77,Wunderground v.1.13,2013-05-18 16:49:00,
2013-05-18 11:50:00,61.7,60.0,29.84,SSE,165,2.0,2.0,94,0.00,,,0.77,Wunderground v.1.13,2013-05-18 16:50:00,
2013-05-18 11:51:00,61.7,60.0,29.84,SSE,161,2.0,3.0,94,0.00,,,0.77,Wunderground v.1.13,2013-05-18 16:51:00,
2013-05-18 11:55:00,61.9,59.9,29.84,ESE,121,2.0,6.0,93,0.00,,,0.77,Wunderground v.1.13,2013-05-18 16:55:00,
2013-05-18 11:57:00,62.0,60.0,29.84,SSE,161,2.0,6.0,93,0.00,,,0.77,Wunderground v.1.13,2013-05-18 16:57:00,
2013-05-18 11:58:00,62.0,60.0,29.84,SSW,199,2.0,6.0,93,0.00,,,0.77,Wunderground v.1.13,2013-05-18 16:58:00,
2013-05-18 11:59:00,62.1,60.1,29.84,SSW,199,2.0,6.0,93,0.00,,,0.77,Wunderground v.1.13,2013-05-18 16:59:00,
2013-05-18 12:01:00,62.2,60.5,29.83,SE,146,2.0,6.0,94,0.00,,,0.77,Wunderground v.1.13,2013-05-18 17:01:00,
2013-05-18 12:03:00,62.4,60.3,29.84,SE,145,2.0,6.0,93,0.00,,,0.77,Wunderground v.1.13,2013-05-18 17:03:00,
2013-05-18 12:04:00,62.5,60.4,29.84,SE,144,2.0,6.0,93,0.00,,,0.77,Wunderground v.1.13,2013-05-18 17:04:00,
2013-05-18 12:09:00,63.1,61.0,29.83,ESE,105,3.0,7.0,93,0.00,,,0.77,Wunderground v.1.13,2013-05-18 17:09:00,
2013-05-18 12:10:00,63.2,61.1,29.83,ESE,115,4.0,6.0,93,0.00,,,0.77,Wunderground v.1.13,2013-05-18 17:10:00,
2013-05-18 12:11:00,63.2,61.1,29.83,ESE,119,4.0,7.0,93,0.00,,,0.77,Wunderground v.1.13,2013-05-18 17:11:00,
2013-05-18 12:12:00,63.3,61.2,29.83,SE,126,5.0,9.0,93,0.00,,,0.77,Wunderground v.1.13,2013-05-18 17:12:00,
2013-05-18 12:16:00,64.0,61.6,29.82,SE,132,6.0,6.0,92,0.00,,,0.77,Wunderground v.1.13,2013-05-18 17:16:00,
2013-05-18 12:18:00,64.4,62.0,29.82,SW,215,6.0,8.0,92,0.00,,,0.77,Wunderground v.1.13,2013-05-18 17:18:00,
2013-05-18 12:19:00,64.5,61.8,29.82,ESE,113,6.0,11.0,91,0.00,,,0.77,Wunderground v.1.13,2013-05-18 17:19:00,
2013-05-18 12:22:00,64.8,61.8,29.81,ESE,117,6.0,10.0,90,0.00,,,0.77,Wunderground v.1.13,2013-05-18 17:22:00,
2013-05-18 12:24:00,65.1,61.8,29.81,South,188,6.0,10.0,89,0.00,,,0.77,Wunderground v.1.13,2013-05-18 17:24:00,
2013-05-18 12:25:00,65.2,61.9,29.81,ESE,119,6.0,9.0,89,0.00,,,0.77,Wunderground v.1.13,2013-05-18 17:25:00,
2013-05-18 12:27:00,65.7,62.4,29.81,SSE,160,6.0,9.0,89,0.00,,,0.77,Wunderground v.1.13,2013-05-18 17:27:00,
2013-05-18 12:29:00,66.0,62.3,29.81,SSE,166,6.0,9.0,88,0.00,,,0.77,Wunderground v.1.13,2013-05-18 17:29:00,
2013-05-18 12:30:00,66.2,62.5,29.80,ESE,121,6.0,10.0,88,0.00,,,0.77,Wunderground v.1.13,2013-05-18 17:30:00,
2013-05-18 12:31:00,66.3,62.3,29.80,ESE,117,6.0,10.0,87,0.00,,,0.77,Wunderground v.1.13,2013-05-18 17:31:00,
2013-05-18 12:32:00,66.4,62.4,29.80,ESE,123,6.0,10.0,87,0.00,,,0.77,Wunderground v.1.13,2013-05-18 17:32:00,
2013-05-18 12:36:00,66.7,62.4,29.80,ESE,122,6.0,10.0,86,0.00,,,0.77,Wunderground v.1.13,2013-05-18 17:36:00,
2013-05-18 12:37:00,66.7,61.7,29.80,ESE,121,6.0,10.0,84,0.00,,,0.77,Wunderground v.1.13,2013-05-18 17:37:00,
2013-05-18 12:38:00,66.8,61.8,29.80,ESE,103,7.0,10.0,84,0.00,,,0.77,Wunderground v.1.13,2013-05-18 17:38:00,
2013-05-18 12:39:00,66.9,61.9,29.80,SE,136,7.0,10.0,84,0.00,,,0.77,Wunderground v.1.13,2013-05-18 17:39:00,
2013-05-18 12:40:00,67.1,62.1,29.80,SSE,149,7.0,7.0,84,0.00,,,0.77,Wunderground v.1.13,2013-05-18 17:40:00,
2013-05-18 12:43:00,67.4,62.1,29.79,ESE,107,7.0,14.0,83,0.00,,,0.77,Wunderground v.1.13,2013-05-18 17:43:00,
2013-05-18 12:44:00,67.4,61.7,29.79,ESE,123,6.0,14.0,82,0.00,,,0.77,Wunderground v.1.13,2013-05-18 17:44:00,
2013-05-18 12:47:00,66.9,61.2,29.79,SE,124,8.0,13.0,82,0.00,,,0.77,Wunderground v.1.13,2013-05-18 17:47:00,
2013-05-18 12:48:00,66.9,61.6,29.79,SSE,155,8.0,13.0,83,0.00,,,0.77,Wunderground v.1.13,2013-05-18 17:48:00,
2013-05-18 12:50:00,67.0,61.7,29.79,ESE,115,8.0,8.0,83,0.00,,,0.77,Wunderground v.1.13,2013-05-18 17:50:00,
2013-05-18 12:52:00,67.1,61.8,29.79,ESE,117,8.0,13.0,83,0.00,,,0.77,Wunderground v.1.13,2013-05-18 17:52:00,
2013-05-18 12:55:00,67.4,61.7,29.79,SSE,148,7.0,7.0,82,0.00,,,0.77,Wunderground v.1.13,2013-05-18 17:55:00,
2013-05-18 12:57:00,67.6,61.9,29.79,SE,128,6.0,8.0,82,0.00,,,0.77,Wunderground v.1.13,2013-05-18 17:57:00,
2013-05-18 12:59:00,67.8,62.1,29.79,SE,129,6.0,8.0,82,0.00,,,0.77,Wunderground v.1.13,2013-05-18 17:59:00,
2013-05-18 13:00:00,68.0,62.3,29.79,SE,129,5.0,5.0,82,0.00,,,0.77,Wunderground v.1.13,2013-05-18 18:00:00,
2013-05-18 13:04:00,68.8,62.7,29.79,SE,134,5.0,7.0,81,0.00,,,0.77,Wunderground v.1.13,2013-05-18 18:04:00,
2013-05-18 13:07:00,69.3,62.5,29.78,ESE,123,5.0,9.0,79,0.00,,,0.77,Wunderground v.1.13,2013-05-18 18:07:00,
2013-05-18 13:08:00,69.4,62.2,29.78,SE,132,5.0,9.0,78,0.00,,,0.77,Wunderground v.1.13,2013-05-18 18:08:00,
2013-05-18 13:09:00,69.5,62.3,29.78,SE,126,6.0,9.0,78,0.00,,,0.77,Wunderground v.1.13,2013-05-18 18:09:00,
2013-05-18 13:10:00,69.7,62.9,29.79,SSE,148,6.0,6.0,79,0.00,,,0.77,Wunderground v.1.13,2013-05-18 18:10:00,
2013-05-18 13:11:00,69.9,63.1,29.78,ESE,115,6.0,8.0,79,0.00,,,0.77,Wunderground v.1.13,2013-05-18 18:11:00,
2013-05-18 13:14:00,70.8,62.9,29.78,SE,133,6.0,9.0,76,0.00,,,0.77,Wunderground v.1.13,2013-05-18 18:14:00,
2013-05-18 13:15:00,71.0,62.7,29.78,SSE,157,6.0,9.0,75,0.00,,,0.77,Wunderground v.1.13,2013-05-18 18:15:00,
2013-05-18 13:20:00,71.9,62.0,29.78,ESE,118,6.0,13.0,71,0.00,,,0.77,Wunderground v.1.13,2013-05-18 18:20:00,
2013-05-18 13:21:00,72.0,62.1,29.78,WSW,257,6.0,13.0,71,0.00,,,0.77,Wunderground v.1.13,2013-05-18 18:21:00,
2013-05-18 13:22:00,72.1,62.2,29.78,SW,229,6.0,13.0,71,0.00,,,0.77,Wunderground v.1.13,2013-05-18 18:22:00,
2013-05-18 13:23:00,72.2,62.3,29.78,South,176,6.0,13.0,71,0.00,,,0.77,Wunderground v.1.13,2013-05-18 18:23:00,
2013-05-18 13:28:00,72.5,62.2,29.78,SE,130,6.0,10.0,70,0.00,,,0.77,Wunderground v.1.13,2013-05-18 18:28:00,
2013-05-18 13:31:00,72.7,61.9,29.78,SE,137,5.0,9.0,69,0.00,,,0.77,Wunderground v.1.13,2013-05-18 18:31:00,
2013-05-18 13:33:00,72.7,61.9,29.78,South,178,5.0,9.0,69,0.00,,,0.77,Wunderground v.1.13,2013-05-18 18:33:00,
2013-05-18 13:35:00,72.9,62.1,29.78,ESE,118,5.0,5.0,69,0.00,,,0.77,Wunderground v.1.13,2013-05-18 18:35:00,
2013-05-18 13:37:00,73.0,62.2,29.78,South,175,5.0,5.0,69,0.00,,,0.77,Wunderground v.1.13,2013-05-18 18:37:00,
2013-05-18 13:38:00,73.1,62.3,29.78,SSW,198,5.0,5.0,69,0.00,,,0.77,Wunderground v.1.13,2013-05-18 18:38:00,
2013-05-18 13:41:00,73.2,62.0,29.78,SSE,163,5.0,6.0,68,0.00,,,0.77,Wunderground v.1.13,2013-05-18 18:41:00,
2013-05-18 13:43:00,73.1,61.9,29.78,ESE,116,5.0,12.0,68,0.00,,,0.77,Wunderground v.1.13,2013-05-18 18:43:00,
2013-05-18 13:44:00,72.9,61.7,29.78,SE,125,5.0,12.0,68,0.00,,,0.77,Wunderground v.1.13,2013-05-18 18:44:00,
2013-05-18 13:46:00,72.8,62.0,29.78,SSE,153,5.0,10.0,69,0.00,,,0.77,Wunderground v.1.13,2013-05-18 18:46:00,
2013-05-18 13:49:00,72.5,61.7,29.78,SW,226,7.0,10.0,69,0.00,,,0.77,Wunderground v.1.13,2013-05-18 18:49:00,
2013-05-18 13:50:00,72.4,61.2,29.77,ESE,122,7.0,12.0,68,0.00,,,0.77,Wunderground v.1.13,2013-05-18 18:50:00,
2013-05-18 13:51:00,72.4,61.2,29.78,SE,146,8.0,12.0,68,0.00,,,0.77,Wunderground v.1.13,2013-05-18 18:51:00,
2013-05-18 13:53:00,72.5,61.3,29.78,SE,134,8.0,12.0,68,0.00,,,0.77,Wunderground v.1.13,2013-05-18 18:53:00,
2013-05-18 13:57:00,73.0,62.2,29.78,SE,132,7.0,9.0,69,0.00,,,0.77,Wunderground v.1.13,2013-05-18 18:57:00,
2013-05-18 14:00:00,73.4,61.8,29.78,South,190,6.0,6.0,67,0.00,,,0.77,Wunderground v.1.13,2013-05-18 19:00:00,
2013-05-18 14:01:00,73.5,61.9,29.78,SE,126,5.0,6.0,67,0.00,,,0.77,Wunderground v.1.13,2013-05-18 19:01:00,
2013-05-18 14:05:00,73.5,61.9,29.78,SE,130,5.0,5.0,67,0.00,,,0.77,Wunderground v.1.13,2013-05-18 19:05:00,
2013-05-18 14:07:00,73.7,62.1,29.77,ESE,110,5.0,7.0,67,0.00,,,0.77,Wunderground v.1.13,2013-05-18 19:07:00,
2013-05-18 14:10:00,74.1,62.0,29.77,ESE,122,4.0,6.0,66,0.00,,,0.77,Wunderground v.1.13,2013-05-18 19:10:00,
2013-05-18 14:11:00,74.1,62.0,29.77,SE,128,5.0,7.0,66,0.00,,,0.77,Wunderground v.1.13,2013-05-18 19:11:00,
2013-05-18 14:12:00,74.1,62.0,29.77,SE,130,5.0,14.0,66,0.00,,,0.77,Wunderground v.1.13,2013-05-18 19:12:00,
2013-05-18 14:16:00,74.1,61.6,29.77,ESE,123,5.0,9.0,65,0.00,,,0.77,Wunderground v.1.13,2013-05-18 19:16:00,
2013-05-18 14:18:00,74.4,62.7,29.77,West,277,5.0,9.0,67,0.00,,,0.77,Wunderground v.1.13,2013-05-18 19:18:00,
2013-05-18 14:19:00,74.6,62.5,29.77,SSW,199,5.0,9.0,66,0.00,,,0.77,Wunderground v.1.13,2013-05-18 19:19:00,
2013-05-18 14:20:00,74.7,62.1,29.77,SSE,161,5.0,5.0,65,0.00,,,0.77,Wunderground v.1.13,2013-05-18 19:20:00,
2013-05-18 14:22:00,74.9,61.9,29.77,SSE,157,5.0,7.0,64,0.00,,,0.77,Wunderground v.1.13,2013-05-18 19:22:00,
2013-05-18 14:26:00,75.2,61.7,29.77,South,191,5.0,12.0,63,0.00,,,0.77,Wunderground v.1.13,2013-05-18 19:26:00,
2013-05-18 14:28:00,75.3,61.8,29.77,South,175,6.0,12.0,63,0.00,,,0.77,Wunderground v.1.13,2013-05-18 19:28:00,
2013-05-18 14:29:00,75.3,61.8,29.77,SSW,206,6.0,12.0,63,0.00,,,0.77,Wunderground v.1.13,2013-05-18 19:29:00,
2013-05-18 14:30:00,75.5,62.5,29.77,WSW,254,6.0,6.0,64,0.00,,,0.77,Wunderground v.1.13,2013-05-18 19:30:00,
2013-05-18 14:31:00,75.6,62.6,29.77,West,264,6.0,6.0,64,0.00,,,0.77,Wunderground v.1.13,2013-05-18 19:31:00,
2013-05-18 14:32:00,75.7,62.2,29.77,South,186,6.0,9.0,63,0.00,,,0.77,Wunderground v.1.13,2013-05-18 19:32:00,
2013-05-18 14:37:00,75.8,62.3,29.77,SW,230,5.0,7.0,63,0.00,,,0.77,Wunderground v.1.13,2013-05-18 19:37:00,
2013-05-18 14:38:00,75.9,62.4,29.77,South,182,5.0,7.0,63,0.00,,,0.77,Wunderground v.1.13,2013-05-18 19:38:00,
2013-05-18 14:39:00,76.0,62.0,29.77,South,180,5.0,7.0,62,0.00,,,0.77,Wunderground v.1.13,2013-05-18 19:39:00,
2013-05-18 14:44:00,76.1,62.1,29.77,SSW,203,5.0,6.0,62,0.00,,,0.77,Wunderground v.1.13,2013-05-18 19:44:00,
2013-05-18 14:46:00,76.1,61.7,29.77,SE,130,4.0,5.0,61,0.00,,,0.77,Wunderground v.1.13,2013-05-18 19:46:00,
2013-05-18 14:47:00,76.0,62.0,29.77,South,175,4.0,7.0,62,0.00,,,0.77,Wunderground v.1.13,2013-05-18 19:47:00,
2013-05-18 14:50:00,75.9,61.9,29.77,SE,136,3.0,6.0,62,0.00,,,0.77,Wunderground v.1.13,2013-05-18 19:50:00,
2013-05-18 14:52:00,76.0,61.6,29.77,SSW,209,3.0,10.0,61,0.00,,,0.77,Wunderground v.1.13,2013-05-18 19:52:00,
2013-05-18 14:55:00,76.1,61.7,29.77,SE,130,4.0,4.0,61,0.00,,,0.77,Wunderground v.1.13,2013-05-18 19:55:00,
2013-05-18 14:56:00,76.1,61.7,29.77,West,266,4.0,4.0,61,0.00,,,0.77,Wunderground v.1.13,2013-05-18 19:56:00,
2013-05-18 14:58:00,76.3,61.9,29.77,South,171,4.0,5.0,61,0.00,,,0.77,Wunderground v.1.13,2013-05-18 19:58:00,
2013-05-18 15:02:00,76.4,62.0,29.77,South,177,4.0,8.0,61,0.00,,,0.77,Wunderground v.1.13,2013-05-18 20:02:00,
2013-05-18 15:04:00,76.6,62.1,29.77,West,280,4.0,8.0,61,0.00,,,0.77,Wunderground v.1.13,2013-05-18 20:04:00,
2013-05-18 15:06:00,76.8,61.9,29.77,SW,225,4.0,6.0,60,0.00,,,0.77,Wunderground v.1.13,2013-05-18 20:06:00,
2013-05-18 15:07:00,76.7,61.3,29.77,SSE,159,4.0,6.0,59,0.00,,,0.77,Wunderground v.1.13,2013-05-18 20:07:00,
2013-05-18 15:10:00,76.7,61.3,29.77,WSW,246,4.0,4.0,59,0.00,,,0.77,Wunderground v.1.13,2013-05-18 20:10:00,
2013-05-18 15:11:00,76.7,61.3,29.77,SE,146,4.0,7.0,59,0.00,,,0.77,Wunderground v.1.13,2013-05-18 20:11:00,
2013-05-18 15:12:00,76.6,60.7,29.77,WSW,250,4.0,7.0,58,0.00,,,0.77,Wunderground v.1.13,2013-05-18 20:12:00,
2013-05-18 15:13:00,76.6,61.2,29.77,WSW,248,4.0,7.0,59,0.00,,,0.77,Wunderground v.1.13,2013-05-18 20:13:00,
2013-05-18 15:14:00,76.6,61.7,29.77,WSW,248,4.0,7.0,60,0.00,,,0.77,Wunderground v.1.13,2013-05-18 20:14:00,
2013-05-18 15:18:00,76.8,60.9,29.76,SSE,159,3.0,4.0,58,0.00,,,0.77,Wunderground v.1.13,2013-05-18 20:18:00,
2013-05-18 15:19:00,76.8,61.4,29.77,SSE,159,2.0,4.0,59,0.00,,,0.77,Wunderground v.1.13,2013-05-18 20:19:00,
2013-05-18 15:21:00,76.5,61.1,29.76,SE,130,2.0,7.0,59,0.00,,,0.77,Wunderground v.1.13,2013-05-18 20:21:00,
2013-05-18 15:22:00,76.4,61.0,29.76,SE,127,2.0,7.0,59,0.00,,,0.77,Wunderground v.1.13,2013-05-18 20:22:00,
2013-05-18 15:23:00,76.2,60.3,29.76,SE,145,2.0,7.0,58,0.00,,,0.77,Wunderground v.1.13,2013-05-18 20:23:00,
2013-05-18 15:25:00,75.9,60.5,29.76,SW,222,3.0,6.0,59,0.00,,,0.77,Wunderground v.1.13,2013-05-18 20:25:00,
2013-05-18 15:26:00,75.9,60.5,29.76,SSW,206,4.0,6.0,59,0.00,,,0.77,Wunderground v.1.13,2013-05-18 20:26:00,
2013-05-18 15:29:00,75.8,60.4,29.76,SE,126,5.0,7.0,59,0.00,,,0.77,Wunderground v.1.13,2013-05-18 20:29:00,
2013-05-18 15:30:00,75.7,60.4,29.76,SE,132,5.0,5.0,59,0.00,,,0.77,Wunderground v.1.13,2013-05-18 20:30:00,
2013-05-18 15:31:00,75.7,60.8,29.76,SE,132,5.0,5.0,60,0.00,,,0.77,Wunderground v.1.13,2013-05-18 20:31:00,
2013-05-18 15:34:00,75.9,60.5,29.76,SE,138,5.0,8.0,59,0.00,,,0.77,Wunderground v.1.13,2013-05-18 20:34:00,
2013-05-18 15:36:00,76.1,60.7,29.76,SE,137,4.0,5.0,59,0.00,,,0.77,Wunderground v.1.13,2013-05-18 20:36:00,
2013-05-18 15:37:00,76.3,61.4,29.76,SW,228,4.0,5.0,60,0.00,,,0.77,Wunderground v.1.13,2013-05-18 20:37:00,
2013-05-18 15:38:00,76.4,60.5,29.76,South,172,4.0,5.0,58,0.00,,,0.77,Wunderground v.1.13,2013-05-18 20:38:00,
2013-05-18 15:42:00,76.5,60.6,29.76,ESE,115,4.0,6.0,58,0.00,,,0.77,Wunderground v.1.13,2013-05-18 20:42:00,
2013-05-18 15:43:00,76.3,60.4,29.76,SE,124,4.0,6.0,58,0.00,,,0.77,Wunderground v.1.13,2013-05-18 20:43:00,
2013-05-18 15:44:00,76.1,60.2,29.76,SE,133,4.0,6.0,58,0.00,,,0.77,Wunderground v.1.13,2013-05-18 20:44:00,
2013-05-18 15:45:00,75.9,60.1,29.76,SE,129,4.0,5.0,58,0.00,,,0.77,Wunderground v.1.13,2013-05-18 20:45:00,
2013-05-18 15:47:00,75.6,60.3,29.76,SW,224,5.0,10.0,59,0.00,,,0.77,Wunderground v.1.13,2013-05-18 20:47:00,
2013-05-18 15:48:00,75.5,60.2,29.76,South,171,5.0,10.0,59,0.00,,,0.77,Wunderground v.1.13,2013-05-18 20:48:00,
2013-05-18 15:49:00,75.4,60.5,29.76,SSE,167,5.0,10.0,60,0.00,,,0.77,Wunderground v.1.13,2013-05-18 20:49:00,
2013-05-18 15:54:00,75.6,60.7,29.76,SW,227,4.0,5.0,60,0.00,,,0.77,Wunderground v.1.13,2013-05-18 20:54:00,
2013-05-18 15:55:00,75.7,60.8,29.76,SE,140,3.0,4.0,60,0.00,,,0.77,Wunderground v.1.13,2013-05-18 20:55:00,
2013-05-18 15:57:00,75.7,60.8,29.76,SE,132,3.0,4.0,60,0.00,,,0.77,Wunderground v.1.13,2013-05-18 20:57:00,
2013-05-18 15:58:00,75.8,60.9,29.76,SE,132,3.0,4.0,60,0.00,,,0.77,Wunderground v.1.13,2013-05-18 20:58:00,
2013-05-18 15:59:00,75.8,60.9,29.76,SE,132,2.0,4.0,60,0.00,,,0.77,Wunderground v.1.13,2013-05-18 20:59:00,
2013-05-18 16:02:00,75.9,60.5,29.76,SE,132,2.0,5.0,59,0.00,,,0.77,Wunderground v.1.13,2013-05-18 21:02:00,
2013-05-18 16:03:00,75.9,61.0,29.76,SE,132,2.0,5.0,60,0.00,,,0.77,Wunderground v.1.13,2013-05-18 21:03:00,
2013-05-18 16:07:00,75.9,60.5,29.76,SE,134,2.0,8.0,59,0.00,,,0.77,Wunderground v.1.13,2013-05-18 21:07:00,
2013-05-18 16:08:00,76.0,60.6,29.76,SE,134,2.0,8.0,59,0.00,,,0.77,Wunderground v.1.13,2013-05-18 21:08:00,
2013-05-18 16:10:00,76.0,60.6,29.76,SE,134,2.0,4.0,59,0.00,,,0.77,Wunderground v.1.13,2013-05-18 21:10:00,
2013-05-18 16:11:00,76.0,60.6,29.76,SE,134,2.0,4.0,59,0.00,,,0.77,Wunderground v.1.13,2013-05-18 21:11:00,
2013-05-18 16:12:00,75.9,60.5,29.76,SE,134,2.0,4.0,59,0.00,,,0.77,Wunderground v.1.13,2013-05-18 21:12:00,
2013-05-18 16:17:00,75.5,61.1,29.76,SE,134,1.0,2.0,61,0.00,,,0.77,Wunderground v.1.13,2013-05-18 21:17:00,
2013-05-18 16:18:00,75.5,61.1,29.76,SE,134,1.0,2.0,61,0.00,,,0.77,Wunderground v.1.13,2013-05-18 21:18:00,
2013-05-18 16:19:00,75.5,61.1,29.76,SE,134,1.0,3.0,61,0.00,,,0.77,Wunderground v.1.13,2013-05-18 21:19:00,
2013-05-18 16:20:00,75.5,61.1,29.76,SE,134,1.0,1.0,61,0.00,,,0.77,Wunderground v.1.13,2013-05-18 21:20:00,
2013-05-18 16:22:00,75.6,61.2,29.76,SSW,196,1.0,5.0,61,0.00,,,0.77,Wunderground v.1.13,2013-05-18 21:22:00,
2013-05-18 16:25:00,75.8,61.4,29.76,South,188,1.0,4.0,61,0.00,,,0.77,Wunderground v.1.13,2013-05-18 21:25:00,
2013-05-18 16:26:00,75.8,61.4,29.76,West,265,2.0,4.0,61,0.00,,,0.77,Wunderground v.1.13,2013-05-18 21:26:00,
2013-05-18 16:29:00,75.8,60.9,29.76,South,169,3.0,9.0,60,0.00,,,0.77,Wunderground v.1.13,2013-05-18 21:29:00,
2013-05-18 16:31:00,75.9,61.5,29.76,WSW,252,4.0,4.0,61,0.00,,,0.77,Wunderground v.1.13,2013-05-18 21:31:00,
2013-05-18 16:32:00,75.9,61.5,29.76,SSE,165,3.0,4.0,61,0.00,,,0.77,Wunderground v.1.13,2013-05-18 21:32:00,
2013-05-18 16:33:00,75.9,61.5,29.76,South,171,4.0,4.0,61,0.00,,,0.77,Wunderground v.1.13,2013-05-18 21:33:00,
2013-05-18 16:36:00,75.9,61.5,29.76,SSE,168,3.0,3.0,61,0.00,,,0.77,Wunderground v.1.13,2013-05-18 21:36:00,
2013-05-18 16:37:00,76.0,62.0,29.76,South,184,3.0,3.0,62,0.00,,,0.77,Wunderground v.1.13,2013-05-18 21:37:00,
2013-05-18 16:40:00,76.1,62.1,29.76,WSW,253,2.0,2.0,62,0.00,,,0.77,Wunderground v.1.13,2013-05-18 21:40:00,
2013-05-18 16:42:00,76.2,62.2,29.76,WSW,247,2.0,4.0,62,0.00,,,0.77,Wunderground v.1.13,2013-05-18 21:42:00,
2013-05-18 16:43:00,76.2,62.2,29.76,WSW,248,1.0,4.0,62,0.00,,,0.77,Wunderground v.1.13,2013-05-18 21:43:00,
2013-05-18 16:48:00,76.3,62.3,29.76,WSW,246,2.0,4.0,62,0.00,,,0.77,Wunderground v.1.13,2013-05-18 21:48:00,
2013-05-18 16:50:00,76.4,62.9,29.76,WSW,246,1.0,1.0,63,0.00,,,0.77,Wunderground v.1.13,2013-05-18 21:50:00,
2013-05-18 16:51:00,76.4,62.9,29.76,WSW,246,1.0,1.0,63,0.00,,,0.77,Wunderground v.1.13,2013-05-18 21:51:00,
2013-05-18 16:52:00,76.5,62.5,29.76,WSW,246,1.0,1.0,62,0.00,,,0.77,Wunderground v.1.13,2013-05-18 21:52:00,
2013-05-18 16:54:00,76.6,62.6,29.76,South,190,1.0,6.0,62,0.00,,,0.77,Wunderground v.1.13,2013-05-18 21:54:00,
2013-05-18 16:57:00,76.6,62.6,29.76,South,190,1.0,4.0,62,0.00,,,0.77,Wunderground v.1.13,2013-05-18 21:57:00,
2013-05-18 16:59:00,76.7,63.2,29.76,South,190,1.0,4.0,63,0.00,,,0.77,Wunderground v.1.13,2013-05-18 21:59:00,
2013-05-18 17:05:00,77.0,63.0,29.76,South,190,0.0,2.0,62,0.00,,,0.77,Wunderground v.1.13,2013-05-18 22:05:00,
2013-05-18 17:07:00,77.1,63.1,29.76,South,190,0.0,3.0,62,0.00,,,0.77,Wunderground v.1.13,2013-05-18 22:07:00,
2013-05-18 17:09:00,77.0,62.5,29.76,South,190,1.0,3.0,61,0.00,,,0.77,Wunderground v.1.13,2013-05-18 22:09:00,
2013-05-18 17:12:00,77.0,62.5,29.76,South,190,1.0,4.0,61,0.00,,,0.77,Wunderground v.1.13,2013-05-18 22:12:00,
2013-05-18 17:13:00,76.9,62.4,29.76,South,190,2.0,4.0,61,0.00,,,0.77,Wunderground v.1.13,2013-05-18 22:13:00,
2013-05-18 17:15:00,76.9,62.4,29.76,South,190,2.0,2.0,61,0.00,,,0.77,Wunderground v.1.13,2013-05-18 22:15:00,
2013-05-18 17:16:00,76.9,62.4,29.76,South,190,2.0,2.0,61,0.00,,,0.77,Wunderground v.1.13,2013-05-18 22:16:00,
2013-05-18 17:19:00,77.1,62.6,29.76,South,190,2.0,2.0,61,0.00,,,0.77,Wunderground v.1.13,2013-05-18 22:19:00,
2013-05-18 17:21:00,77.2,63.2,29.76,South,190,1.0,1.0,62,0.00,,,0.77,Wunderground v.1.13,2013-05-18 22:21:00,
2013-05-18 17:22:00,77.3,62.8,29.76,South,190,1.0,1.0,61,0.00,,,0.77,Wunderground v.1.13,2013-05-18 22:22:00,
2013-05-18 17:24:00,77.5,62.5,29.76,South,190,1.0,4.0,60,0.00,,,0.77,Wunderground v.1.13,2013-05-18 22:24:00,
2013-05-18 17:26:00,77.6,62.6,29.76,South,190,0.0,1.0,60,0.00,,,0.77,Wunderground v.1.13,2013-05-18 22:26:00,
2013-05-18 17:30:00,78.0,62.5,29.76,SSE,159,1.0,1.0,59,0.00,,,0.77,Wunderground v.1.13,2013-05-18 22:30:00,
2013-05-18 17:31:00,78.0,62.5,29.76,SSE,150,1.0,2.0,59,0.00,,,0.77,Wunderground v.1.13,2013-05-18 22:31:00,
2013-05-18 17:32:00,78.0,62.5,29.76,SE,140,2.0,6.0,59,0.00,,,0.77,Wunderground v.1.13,2013-05-18 22:32:00,
2013-05-18 17:33:00,77.9,62.4,29.76,SE,140,2.0,6.0,59,0.00,,,0.77,Wunderground v.1.13,2013-05-18 22:33:00,
2013-05-18 17:35:00,77.9,62.4,29.76,SE,140,2.0,2.0,59,0.00,,,0.77,Wunderground v.1.13,2013-05-18 22:35:00,
2013-05-18 17:36:00,77.9,62.4,29.76,SE,140,2.0,2.0,59,0.00,,,0.77,Wunderground v.1.13,2013-05-18 22:36:00,
2013-05-18 17:38:00,78.0,63.5,29.76,SE,140,2.0,2.0,61,0.00,,,0.77,Wunderground v.1.13,2013-05-18 22:38:00,
2013-05-18 17:40:00,78.3,63.3,29.76,SE,140,1.0,1.0,60,0.00,,,0.77,Wunderground v.1.13,2013-05-18 22:40:00,
2013-05-18 17:42:00,78.3,62.8,29.76,SE,128,1.0,6.0,59,0.00,,,0.77,Wunderground v.1.13,2013-05-18 22:42:00,
2013-05-18 17:45:00,77.4,62.4,29.76,SE,125,3.0,6.0,60,0.00,,,0.77,Wunderground v.1.13,2013-05-18 22:45:00,
2013-05-18 17:46:00,77.3,62.3,29.76,ESE,122,3.0,6.0,60,0.00,,,0.77,Wunderground v.1.13,2013-05-18 22:46:00,
2013-05-18 17:47:00,77.0,62.5,29.76,ESE,122,3.0,6.0,61,0.00,,,0.77,Wunderground v.1.13,2013-05-18 22:47:00,
2013-05-18 17:50:00,76.8,62.8,29.76,ESE,121,4.0,4.0,62,0.00,,,0.77,Wunderground v.1.13,2013-05-18 22:50:00,
2013-05-18 17:51:00,76.8,62.8,29.76,ESE,121,4.0,4.0,62,0.00,,,0.77,Wunderground v.1.13,2013-05-18 22:51:00,
2013-05-18 17:53:00,76.7,62.7,29.76,ESE,121,3.0,4.0,62,0.00,,,0.77,Wunderground v.1.13,2013-05-18 22:53:00,
2013-05-18 17:56:00,76.8,62.8,29.76,ESE,121,2.0,3.0,62,0.00,,,0.77,Wunderground v.1.13,2013-05-18 22:56:00,
2013-05-18 17:58:00,76.9,63.3,29.76,SW,227,2.0,3.0,63,0.00,,,0.77,Wunderground v.1.13,2013-05-18 22:58:00,
2013-05-18 17:59:00,77.0,63.0,29.76,SW,227,1.0,3.0,62,0.00,,,0.77,Wunderground v.1.13,2013-05-18 22:59:00,
2013-05-18 18:02:00,77.1,63.1,29.76,SW,223,2.0,2.0,62,0.00,,,0.77,Wunderground v.1.13,2013-05-18 23:02:00,
2013-05-18 18:03:00,77.1,63.1,29.76,SW,223,1.0,2.0,62,0.00,,,0.77,Wunderground v.1.13,2013-05-18 23:03:00,
2013-05-18 18:04:00,77.1,63.1,29.76,SW,223,1.0,3.0,62,0.00,,,0.77,Wunderground v.1.13,2013-05-18 23:04:00,
2013-05-18 18:08:00,76.4,62.9,29.76,SE,131,2.0,4.0,63,0.00,,,0.77,Wunderground v.1.13,2013-05-18 23:08:00,
2013-05-18 18:09:00,76.4,63.8,29.76,SE,138,2.0,4.0,65,0.00,,,0.77,Wunderground v.1.13,2013-05-18 23:09:00,
2013-05-18 18:11:00,76.4,63.3,29.76,SE,138,2.0,2.0,64,0.00,,,0.77,Wunderground v.1.13,2013-05-18 23:11:00,
2013-05-18 18:13:00,76.4,63.3,29.76,SE,138,2.0,2.0,64,0.00,,,0.77,Wunderground v.1.13,2013-05-18 23:13:00,
2013-05-18 18:14:00,76.5,63.4,29.76,SE,138,2.0,2.0,64,0.00,,,0.77,Wunderground v.1.13,2013-05-18 23:14:00,
2013-05-18 18:15:00,76.5,63.4,29.76,SE,138,1.0,1.0,64,0.00,,,0.77,Wunderground v.1.13,2013-05-18 23:15:00,
2013-05-18 18:18:00,76.6,63.5,29.76,SE,146,0.0,1.0,64,0.00,,,0.77,Wunderground v.1.13,2013-05-18 23:18:00,
2013-05-18 18:20:00,76.7,63.6,29.76,SE,146,0.0,0.0,64,0.00,,,0.77,Wunderground v.1.13,2013-05-18 23:20:00,
2013-05-18 18:21:00,76.7,63.6,29.76,SE,146,0.0,0.0,64,0.00,,,0.77,Wunderground v.1.13,2013-05-18 23:21:00,
2013-05-18 18:27:00,76.7,63.2,29.76,SE,146,1.0,2.0,63,0.00,,,0.77,Wunderground v.1.13,2013-05-18 23:27:00,
2013-05-18 18:28:00,76.6,63.1,29.76,SE,146,1.0,2.0,63,0.00,,,0.77,Wunderground v.1.13,2013-05-18 23:28:00,
2013-05-18 18:30:00,76.5,63.4,29.76,SE,146,0.0,2.0,64,0.00,,,0.77,Wunderground v.1.13,2013-05-18 23:30:00,
2013-05-18 18:31:00,76.5,63.4,29.76,SE,146,0.0,3.0,64,0.00,,,0.77,Wunderground v.1.13,2013-05-18 23:31:00,
2013-05-18 18:33:00,76.4,63.3,29.76,SE,146,1.0,3.0,64,0.00,,,0.77,Wunderground v.1.13,2013-05-18 23:33:00,
2013-05-18 18:34:00,76.3,63.2,29.76,SE,146,1.0,3.0,64,0.00,,,0.77,Wunderground v.1.13,2013-05-18 23:34:00,
2013-05-18 18:38:00,76.0,62.9,29.76,SE,146,0.0,1.0,64,0.00,,,0.77,Wunderground v.1.13,2013-05-18 23:38:00,
2013-05-18 18:39:00,76.0,63.4,29.76,SE,146,0.0,1.0,65,0.00,,,0.77,Wunderground v.1.13,2013-05-18 23:39:00,
2013-05-18 18:42:00,76.2,63.6,29.76,SE,146,0.0,0.0,65,0.00,,,0.77,Wunderground v.1.13,2013-05-18 23:42:00,
2013-05-18 18:43:00,76.4,63.8,29.76,SE,146,0.0,0.0,65,0.00,,,0.77,Wunderground v.1.13,2013-05-18 23:43:00,
2013-05-18 18:45:00,76.7,64.0,29.76,SE,146,0.0,1.0,65,0.00,,,0.77,Wunderground v.1.13,2013-05-18 23:45:00,
2013-05-18 18:48:00,77.0,63.4,29.76,SE,146,0.0,1.0,63,0.00,,,0.77,Wunderground v.1.13,2013-05-18 23:48:00,
2013-05-18 18:49:00,77.1,63.5,29.76,SE,146,0.0,1.0,63,0.00,,,0.77,Wunderground v.1.13,2013-05-18 23:49:00,
2013-05-18 18:50:00,77.3,63.7,29.76,SE,146,0.0,0.0,63,0.00,,,0.77,Wunderground v.1.13,2013-05-18 23:50:00,
2013-05-18 18:53:00,77.5,63.9,29.76,SE,146,0.0,0.0,63,0.00,,,0.77,Wunderground v.1.13,2013-05-18 23:53:00,
2013-05-18 18:56:00,77.6,63.5,29.76,SE,146,0.0,0.0,62,0.00,,,0.77,Wunderground v.1.13,2013-05-18 23:56:00,
2013-05-18 18:57:00,77.6,63.1,29.76,SE,146,0.0,4.0,61,0.00,,,0.77,Wunderground v.1.13,2013-05-18 23:57:00,
2013-05-18 19:00:00,77.6,63.1,29.76,SE,146,0.0,0.0,61,0.00,,,0.77,Wunderground v.1.13,2013-05-19 00:00:00,
2013-05-18 19:01:00,77.7,63.2,29.76,South,176,0.0,4.0,61,0.00,,,0.77,Wunderground v.1.13,2013-05-19 00:01:00,
2013-05-18 19:02:00,77.6,63.1,29.76,South,176,0.0,4.0,61,0.00,,,0.77,Wunderground v.1.13,2013-05-19 00:02:00,
2013-05-18 19:03:00,77.6,63.1,29.76,South,176,0.0,4.0,61,0.00,,,0.77,Wunderground v.1.13,2013-05-19 00:03:00,
2013-05-18 19:04:00,77.7,63.2,29.75,South,176,0.0,4.0,61,0.00,,,0.77,Wunderground v.1.13,2013-05-19 00:04:00,
2013-05-18 19:09:00,77.6,63.1,29.75,South,176,0.0,0.0,61,0.00,,,0.77,Wunderground v.1.13,2013-05-19 00:09:00,
2013-05-18 19:10:00,77.6,63.1,29.76,South,176,0.0,0.0,61,0.00,,,0.77,Wunderground v.1.13,2013-05-19 00:10:00,
2013-05-18 19:11:00,77.6,63.1,29.75,South,176,0.0,0.0,61,0.00,,,0.77,Wunderground v.1.13,2013-05-19 00:11:00,
2013-05-18 19:14:00,77.5,63.0,29.76,South,176,0.0,0.0,61,0.00,,,0.77,Wunderground v.1.13,2013-05-19 00:14:00,
2013-05-18 19:15:00,77.4,62.9,29.76,South,176,0.0,0.0,61,0.00,,,0.77,Wunderground v.1.13,2013-05-19 00:15:00,
2013-05-18 19:16:00,77.4,63.4,29.76,South,176,0.0,0.0,62,0.00,,,0.77,Wunderground v.1.13,2013-05-19 00:16:00,
2013-05-18 19:17:00,77.3,62.8,29.76,South,176,0.0,0.0,61,0.00,,,0.77,Wunderground v.1.13,2013-05-19 00:17:00,
2013-05-18 19:18:00,77.3,62.8,29.75,South,176,0.0,0.0,61,0.00,,,0.77,Wunderground v.1.13,2013-05-19 00:18:00,
2013-05-18 19:22:00,76.9,62.9,29.75,South,176,0.0,0.0,62,0.00,,,0.77,Wunderground v.1.13,2013-05-19 00:22:00,
2013-05-18 19:24:00,76.7,62.7,29.75,South,176,0.0,0.0,62,0.00,,,0.77,Wunderground v.1.13,2013-05-19 00:24:00,
2013-05-18 19:25:00,76.6,62.6,29.75,South,176,0.0,0.0,62,0.00,,,0.77,Wunderground v.1.13,2013-05-19 00:25:00,
2013-05-18 19:27:00,76.4,62.9,29.75,South,176,0.0,0.0,63,0.00,,,0.77,Wunderground v.1.13,2013-05-19 00:27:00,
2013-05-18 19:28:00,76.2,62.7,29.75,South,176,0.0,0.0,63,0.00,,,0.77,Wunderground v.1.13,2013-05-19 00:28:00,
2013-05-18 19:30:00,75.9,62.4,29.75,South,176,0.0,0.0,63,0.00,,,0.77,Wunderground v.1.13,2013-05-19 00:30:00,
2013-05-18 19:31:00,75.9,62.4,29.75,South,176,0.0,0.0,63,0.00,,,0.77,Wunderground v.1.13,2013-05-19 00:31:00,
2013-05-18 19:32:00,75.8,62.8,29.75,South,176,0.0,0.0,64,0.00,,,0.77,Wunderground v.1.13,2013-05-19 00:32:00,
2013-05-18 19:33:00,75.7,62.7,29.75,South,176,0.0,0.0,64,0.00,,,0.77,Wunderground v.1.13,2013-05-19 00:33:00,
2013-05-18 19:37:00,75.2,62.6,29.75,South,176,0.0,0.0,65,0.00,,,0.77,Wunderground v.1.13,2013-05-19 00:37:00,
2013-05-18 19:38:00,75.1,62.5,29.75,South,176,0.0,0.0,65,0.00,,,0.77,Wunderground v.1.13,2013-05-19 00:38:00,
2013-05-18 19:40:00,74.9,62.3,29.75,South,176,0.0,0.0,65,0.00,,,0.77,Wunderground v.1.13,2013-05-19 00:40:00,
2013-05-18 19:43:00,74.6,62.5,29.75,South,176,0.0,0.0,66,0.00,,,0.77,Wunderground v.1.13,2013-05-19 00:43:00,
2013-05-18 19:45:00,74.4,62.7,29.75,South,176,0.0,0.0,67,0.00,,,0.77,Wunderground v.1.13,2013-05-19 00:45:00,
2013-05-18 19:47:00,74.2,62.5,29.75,South,176,0.0,0.0,67,0.00,,,0.77,Wunderground v.1.13,2013-05-19 00:47:00,
2013-05-18 19:48:00,74.1,62.9,29.75,South,176,0.0,0.0,68,0.00,,,0.77,Wunderground v.1.13,2013-05-19 00:48:00,
2013-05-18 19:49:00,74.0,62.8,29.75,South,176,0.0,0.0,68,0.00,,,0.77,Wunderground v.1.13,2013-05-19 00:49:00,
2013-05-18 19:50:00,74.0,62.8,29.75,South,176,0.0,0.0,68,0.00,,,0.77,Wunderground v.1.13,2013-05-19 00:50:00,
2013-05-18 19:54:00,73.7,62.9,29.75,South,176,0.0,0.0,69,0.00,,,0.77,Wunderground v.1.13,2013-05-19 00:54:00,
2013-05-18 19:56:00,73.7,63.3,29.75,South,176,0.0,0.0,70,0.00,,,0.77,Wunderground v.1.13,2013-05-19 00:56:00,
2013-05-18 20:00:00,73.5,63.5,29.75,South,176,0.0,0.0,71,0.00,,,0.77,Wunderground v.1.13,2013-05-19 01:00:00,
2013-05-18 20:01:00,73.4,63.0,29.75,South,176,0.0,0.0,70,0.00,,,0.77,Wunderground v.1.13,2013-05-19 01:01:00,
2013-05-18 20:02:00,73.4,63.0,29.74,South,176,0.0,0.0,70,0.00,,,0.77,Wunderground v.1.13,2013-05-19 01:02:00,
2013-05-18 20:03:00,73.3,62.9,29.75,South,176,0.0,0.0,70,0.00,,,0.77,Wunderground v.1.13,2013-05-19 01:03:00,
2013-05-18 20:04:00,73.3,62.9,29.74,South,176,0.0,0.0,70,0.00,,,0.77,Wunderground v.1.13,2013-05-19 01:04:00,
2013-05-18 20:07:00,73.1,62.7,29.74,South,176,0.0,0.0,70,0.00,,,0.77,Wunderground v.1.13,2013-05-19 01:07:00,
2013-05-18 20:09:00,73.0,63.0,29.74,South,176,0.0,0.0,71,0.00,,,0.77,Wunderground v.1.13,2013-05-19 01:09:00,
2013-05-18 20:10:00,73.0,63.0,29.74,South,175,0.0,0.0,71,0.00,,,0.77,Wunderground v.1.13,2013-05-19 01:10:00,
2013-05-18 20:11:00,72.8,62.8,29.74,South,175,0.0,0.0,71,0.00,,,0.77,Wunderground v.1.13,2013-05-19 01:11:00,
2013-05-18 20:15:00,72.3,62.4,29.74,East,97,1.0,2.0,71,0.00,,,0.77,Wunderground v.1.13,2013-05-19 01:15:00,
2013-05-18 20:16:00,72.2,62.7,29.74,East,97,1.0,2.0,72,0.00,,,0.77,Wunderground v.1.13,2013-05-19 01:16:00,
2013-05-18 20:17:00,72.1,62.6,29.74,East,97,1.0,2.0,72,0.00,,,0.77,Wunderground v.1.13,2013-05-19 01:17:00,
2013-05-18 20:18:00,72.1,62.6,29.74,East,97,1.0,2.0,72,0.00,,,0.77,Wunderground v.1.13,2013-05-19 01:18:00,
2013-05-18 20:24:00,71.7,62.6,29.74,East,97,0.0,1.0,73,0.00,,,0.77,Wunderground v.1.13,2013-05-19 01:24:00,
2013-05-18 20:25:00,71.7,63.0,29.74,East,97,0.0,0.0,74,0.00,,,0.77,Wunderground v.1.13,2013-05-19 01:25:00,
2013-05-18 20:26:00,71.7,63.0,29.75,East,96,0.0,0.0,74,0.00,,,0.77,Wunderground v.1.13,2013-05-19 01:26:00,
2013-05-18 20:27:00,71.6,62.9,29.74,East,97,0.0,0.0,74,0.00,,,0.77,Wunderground v.1.13,2013-05-19 01:27:00,
2013-05-18 20:31:00,71.3,63.0,29.75,East,96,0.0,0.0,75,0.00,,,0.77,Wunderground v.1.13,2013-05-19 01:31:00,
2013-05-18 20:33:00,71.2,62.9,29.75,East,97,0.0,0.0,75,0.00,,,0.77,Wunderground v.1.13,2013-05-19 01:33:00,
2013-05-18 20:35:00,71.1,62.8,29.75,East,96,0.0,0.0,75,0.00,,,0.77,Wunderground v.1.13,2013-05-19 01:35:00,
2013-05-18 20:37:00,71.0,62.7,29.75,East,96,0.0,0.0,75,0.00,,,0.77,Wunderground v.1.13,2013-05-19 01:37:00,
2013-05-18 20:38:00,71.0,62.7,29.75,East,97,0.0,0.0,75,0.00,,,0.77,Wunderground v.1.13,2013-05-19 01:38:00,
2013-05-18 20:41:00,71.2,62.9,29.74,East,97,0.0,0.0,75,0.00,,,0.77,Wunderground v.1.13,2013-05-19 01:41:00,
2013-05-18 20:43:00,71.3,62.6,29.74,East,97,0.0,0.0,74,0.00,,,0.77,Wunderground v.1.13,2013-05-19 01:43:00,
2013-05-18 20:45:00,71.4,62.7,29.74,East,97,0.0,0.0,74,0.00,,,0.77,Wunderground v.1.13,2013-05-19 01:45:00,
2013-05-18 20:48:00,71.5,62.8,29.74,East,96,0.0,0.0,74,0.00,,,0.77,Wunderground v.1.13,2013-05-19 01:48:00,
2013-05-18 20:49:00,71.5,62.8,29.74,East,97,0.0,0.0,74,0.00,,,0.77,Wunderground v.1.13,2013-05-19 01:49:00,
2013-05-18 20:50:00,71.5,62.8,29.74,East,97,0.0,0.0,74,0.00,,,0.77,Wunderground v.1.13,2013-05-19 01:50:00,
2013-05-18 20:52:00,71.5,62.8,29.75,East,96,0.0,0.0,74,0.00,,,0.77,Wunderground v.1.13,2013-05-19 01:52:00,
2013-05-18 20:55:00,71.5,62.8,29.75,East,97,0.0,0.0,74,0.00,,,0.77,Wunderground v.1.13,2013-05-19 01:55:00,
2013-05-18 20:57:00,71.4,63.1,29.75,East,97,0.0,0.0,75,0.00,,,0.77,Wunderground v.1.13,2013-05-19 01:57:00,
2013-05-18 20:58:00,71.4,63.1,29.75,East,97,0.0,0.0,75,0.00,,,0.77,Wunderground v.1.13,2013-05-19 01:58:00,
2013-05-18 20:59:00,71.4,63.1,29.75,East,97,0.0,0.0,75,0.00,,,0.77,Wunderground v.1.13,2013-05-19 01:59:00,
2013-05-18 21:00:00,71.4,62.7,29.75,East,97,0.0,0.0,74,0.00,,,0.77,Wunderground v.1.13,2013-05-19 02:00:00,
2013-05-18 21:05:00,71.2,62.9,29.74,East,97,0.0,0.0,75,0.00,,,0.77,Wunderground v.1.13,2013-05-19 02:05:00,
2013-05-18 21:06:00,71.0,62.7,29.74,East,96,0.0,0.0,75,0.00,,,0.77,Wunderground v.1.13,2013-05-19 02:06:00,
2013-05-18 21:07:00,70.9,62.6,29.74,East,97,0.0,0.0,75,0.00,,,0.77,Wunderground v.1.13,2013-05-19 02:07:00,
2013-05-18 21:08:00,70.7,62.8,29.75,East,97,0.0,0.0,76,0.00,,,0.77,Wunderground v.1.13,2013-05-19 02:08:00,
2013-05-18 21:10:00,70.4,62.5,29.74,East,96,0.0,0.0,76,0.00,,,0.77,Wunderground v.1.13,2013-05-19 02:10:00,
2013-05-18 21:11:00,70.2,62.3,29.75,East,97,0.0,0.0,76,0.00,,,0.77,Wunderground v.1.13,2013-05-19 02:11:00,
2013-05-18 21:12:00,70.1,62.6,29.75,East,97,0.0,0.0,77,0.00,,,0.77,Wunderground v.1.13,2013-05-19 02:12:00,
2013-05-18 21:13:00,70.0,62.5,29.75,East,97,0.0,0.0,77,0.00,,,0.77,Wunderground v.1.13,2013-05-19 02:13:00,
2013-05-18 21:14:00,69.9,62.7,29.75,East,97,0.0,0.0,78,0.00,,,0.77,Wunderground v.1.13,2013-05-19 02:14:00,
2013-05-18 21:19:00,69.5,62.3,29.75,East,97,0.0,2.0,78,0.00,,,0.77,Wunderground v.1.13,2013-05-19 02:19:00,
2013-05-18 21:21:00,69.5,62.3,29.75,East,97,0.0,0.0,78,0.00,,,0.77,Wunderground v.1.13,2013-05-19 02:21:00,
2013-05-18 21:22:00,69.5,62.3,29.75,East,97,0.0,0.0,78,0.00,,,0.77,Wunderground v.1.13,2013-05-19 02:22:00,
2013-05-18 21:23:00,69.5,62.3,29.75,East,97,0.0,0.0,78,0.00,,,0.77,Wunderground v.1.13,2013-05-19 02:23:00,
2013-05-18 21:27:00,69.6,62.4,29.75,East,97,0.0,0.0,78,0.00,,,0.77,Wunderground v.1.13,2013-05-19 02:27:00,
2013-05-18 21:28:00,69.6,62.4,29.75,East,97,0.0,0.0,78,0.00,,,0.77,Wunderground v.1.13,2013-05-19 02:28:00,
2013-05-18 21:30:00,69.6,62.4,29.75,East,97,0.0,0.0,78,0.00,,,0.77,Wunderground v.1.13,2013-05-19 02:30:00,
2013-05-18 21:34:00,69.6,62.4,29.74,East,97,0.0,3.0,78,0.00,,,0.77,Wunderground v.1.13,2013-05-19 02:34:00,
2013-05-18 21:35:00,69.6,62.4,29.74,East,96,1.0,2.0,78,0.00,,,0.77,Wunderground v.1.13,2013-05-19 02:35:00,
2013-05-18 21:37:00,69.6,62.4,29.74,East,97,1.0,2.0,78,0.00,,,0.77,Wunderground v.1.13,2013-05-19 02:37:00,
2013-05-18 21:40:00,69.6,62.4,29.74,East,96,1.0,1.0,78,0.00,,,0.77,Wunderground v.1.13,2013-05-19 02:40:00,
2013-05-18 21:41:00,69.6,62.4,29.74,East,96,1.0,1.0,78,0.00,,,0.77,Wunderground v.1.13,2013-05-19 02:41:00,
2013-05-18 21:42:00,69.6,62.4,29.74,East,96,2.0,2.0,78,0.00,,,0.77,Wunderground v.1.13,2013-05-19 02:42:00,
2013-05-18 21:47:00,69.8,62.6,29.74,East,97,1.0,3.0,78,0.00,,,0.77,Wunderground v.1.13,2013-05-19 02:47:00,
2013-05-18 21:48:00,69.9,62.7,29.74,East,96,1.0,3.0,78,0.00,,,0.77,Wunderground v.1.13,2013-05-19 02:48:00,
2013-05-18 21:49:00,69.9,62.4,29.74,East,97,1.0,3.0,77,0.00,,,0.77,Wunderground v.1.13,2013-05-19 02:49:00,
2013-05-18 21:50:00,70.0,62.5,29.74,East,97,1.0,3.0,77,0.00,,,0.77,Wunderground v.1.13,2013-05-19 02:50:00,
2013-05-18 21:54:00,70.2,62.6,29.74,East,91,2.0,5.0,77,0.00,,,0.77,Wunderground v.1.13,2013-05-19 02:54:00,
2013-05-18 21:58:00,70.5,62.9,29.74,East,96,3.0,6.0,77,0.00,,,0.77,Wunderground v.1.13,2013-05-19 02:58:00,
2013-05-18 21:59:00,70.5,62.6,29.74,East,96,3.0,6.0,76,0.00,,,0.77,Wunderground v.1.13,2013-05-19 02:59:00,
2013-05-18 22:01:00,70.5,62.6,29.74,ENE,77,3.0,5.0,76,0.00,,,0.77,Wunderground v.1.13,2013-05-19 03:01:00,
2013-05-18 22:02:00,70.6,63.0,29.74,East,82,3.0,5.0,77,0.00,,,0.77,Wunderground v.1.13,2013-05-19 03:02:00,
2013-05-18 22:05:00,70.5,62.9,29.74,ESE,115,4.0,6.0,77,0.00,,,0.77,Wunderground v.1.13,2013-05-19 03:05:00,
2013-05-18 22:07:00,70.3,62.7,29.73,ESE,113,4.0,6.0,77,0.00,,,0.77,Wunderground v.1.13,2013-05-19 03:07:00,
2013-05-18 22:08:00,70.2,62.6,29.73,ESE,115,4.0,6.0,77,0.00,,,0.77,Wunderground v.1.13,2013-05-19 03:08:00,
2013-05-18 22:11:00,69.9,62.7,29.73,ESE,117,5.0,7.0,78,0.00,,,0.77,Wunderground v.1.13,2013-05-19 03:11:00,
2013-05-18 22:12:00,69.9,62.7,29.73,ESE,117,5.0,7.0,78,0.00,,,0.77,Wunderground v.1.13,2013-05-19 03:12:00,
2013-05-18 22:13:00,69.8,62.6,29.73,ESE,109,5.0,7.0,78,0.00,,,0.77,Wunderground v.1.13,2013-05-19 03:13:00,
2013-05-18 22:15:00,69.8,62.6,29.73,East,101,6.0,6.0,78,0.00,,,0.77,Wunderground v.1.13,2013-05-19 03:15:00,
2013-05-18 22:17:00,69.7,62.5,29.72,East,101,6.0,7.0,78,0.00,,,0.77,Wunderground v.1.13,2013-05-19 03:17:00,
2013-05-18 22:18:00,69.7,62.9,29.72,ESE,110,6.0,7.0,79,0.00,,,0.77,Wunderground v.1.13,2013-05-19 03:18:00,
2013-05-18 22:19:00,69.8,63.0,29.72,ESE,102,6.0,9.0,79,0.00,,,0.77,Wunderground v.1.13,2013-05-19 03:19:00,
2013-05-18 22:24:00,70.1,62.9,29.72,ESE,118,7.0,9.0,78,0.00,,,0.77,Wunderground v.1.13,2013-05-19 03:24:00,
2013-05-18 22:25:00,70.0,62.8,29.72,ESE,117,7.0,7.0,78,0.00,,,0.77,Wunderground v.1.13,2013-05-19 03:25:00,
2013-05-18 22:28:00,69.6,62.4,29.72,ESE,119,7.0,7.0,78,0.00,,,0.77,Wunderground v.1.13,2013-05-19 03:28:00,
2013-05-18 22:30:00,69.3,62.5,29.72,ESE,113,6.0,7.0,79,0.00,,,0.77,Wunderground v.1.13,2013-05-19 03:30:00,
2013-05-18 22:33:00,69.2,62.8,29.72,ESE,115,6.0,7.0,80,0.00,,,0.77,Wunderground v.1.13,2013-05-19 03:33:00,
2013-05-18 22:34:00,69.2,62.8,29.72,ESE,119,6.0,7.0,80,0.00,,,0.77,Wunderground v.1.13,2013-05-19 03:34:00,
2013-05-18 22:35:00,69.1,62.7,29.72,ESE,118,6.0,8.0,80,0.00,,,0.77,Wunderground v.1.13,2013-05-19 03:35:00,
2013-05-18 22:36:00,69.1,62.7,29.72,East,101,6.0,8.0,80,0.00,,,0.77,Wunderground v.1.13,2013-05-19 03:36:00,
2013-05-18 22:40:00,69.1,62.7,29.72,ESE,117,6.0,6.0,80,0.00,,,0.77,Wunderground v.1.13,2013-05-19 03:40:00,
2013-05-18 22:41:00,69.0,62.6,29.72,ESE,117,6.0,6.0,80,0.00,,,0.77,Wunderground v.1.13,2013-05-19 03:41:00,
2013-05-18 22:42:00,68.9,62.5,29.71,ESE,105,6.0,10.0,80,0.00,,,0.77,Wunderground v.1.13,2013-05-19 03:42:00,
2013-05-18 22:44:00,68.8,62.4,29.71,ESE,117,6.0,10.0,80,0.00,,,0.77,Wunderground v.1.13,2013-05-19 03:44:00,
2013-05-18 22:45:00,68.8,62.7,29.71,ESE,114,7.0,7.0,81,0.00,,,0.77,Wunderground v.1.13,2013-05-19 03:45:00,
2013-05-18 22:47:00,68.8,62.4,29.71,ESE,117,7.0,8.0,80,0.00,,,0.77,Wunderground v.1.13,2013-05-19 03:47:00,
2013-05-18 22:48:00,68.8,62.4,29.71,ESE,115,7.0,8.0,80,0.00,,,0.77,Wunderground v.1.13,2013-05-19 03:48:00,
2013-05-18 22:51:00,69.0,62.6,29.71,ESE,121,7.0,9.0,80,0.00,,,0.77,Wunderground v.1.13,2013-05-19 03:51:00,
2013-05-18 22:53:00,69.0,62.6,29.70,ESE,120,8.0,9.0,80,0.00,,,0.77,Wunderground v.1.13,2013-05-19 03:53:00,
2013-05-18 22:54:00,69.1,63.0,29.70,ESE,117,8.0,9.0,81,0.00,,,0.77,Wunderground v.1.13,2013-05-19 03:54:00,
2013-05-18 22:55:00,69.1,62.7,29.70,SE,132,8.0,8.0,80,0.00,,,0.77,Wunderground v.1.13,2013-05-19 03:55:00,
2013-05-18 22:58:00,69.3,62.9,29.70,ESE,103,9.0,12.0,80,0.00,,,0.77,Wunderground v.1.13,2013-05-19 03:58:00,
2013-05-18 23:00:00,69.5,63.1,29.71,ESE,114,9.0,9.0,80,0.00,,,0.77,Wunderground v.1.13,2013-05-19 04:00:00,
2013-05-18 23:01:00,69.5,63.1,29.70,ESE,121,9.0,9.0,80,0.00,,,0.77,Wunderground v.1.13,2013-05-19 04:01:00,
2013-05-18 23:02:00,69.5,63.1,29.70,ESE,120,9.0,9.0,80,0.00,,,0.77,Wunderground v.1.13,2013-05-19 04:02:00,
2013-05-18 23:03:00,69.4,62.6,29.70,ESE,117,9.0,9.0,79,0.00,,,0.77,Wunderground v.1.13,2013-05-19 04:03:00,
2013-05-18 23:04:00,69.4,63.0,29.70,ESE,121,9.0,9.0,80,0.00,,,0.77,Wunderground v.1.13,2013-05-19 04:04:00,
2013-05-18 23:07:00,69.6,62.8,29.70,SE,132,9.0,10.0,79,0.00,,,0.77,Wunderground v.1.13,2013-05-19 04:07:00,
2013-05-18 23:08:00,69.6,62.8,29.70,ESE,123,9.0,10.0,79,0.00,,,0.77,Wunderground v.1.13,2013-05-19 04:08:00,
2013-05-18 23:10:00,69.4,62.6,29.70,ESE,107,9.0,9.0,79,0.00,,,0.77,Wunderground v.1.13,2013-05-19 04:10:00,
2013-05-18 23:11:00,69.4,63.0,29.70,ESE,107,9.0,9.0,80,0.00,,,0.77,Wunderground v.1.13,2013-05-19 04:11:00,
2013-05-18 23:13:00,69.4,62.6,29.70,ESE,115,9.0,10.0,79,0.00,,,0.77,Wunderground v.1.13,2013-05-19 04:13:00,
2013-05-18 23:15:00,69.5,62.7,29.70,ESE,117,9.0,9.0,79,0.00,,,0.77,Wunderground v.1.13,2013-05-19 04:15:00,
2013-05-18 23:16:00,69.5,62.7,29.70,SE,128,9.0,9.0,79,0.00,,,0.77,Wunderground v.1.13,2013-05-19 04:16:00,
2013-05-18 23:18:00,69.6,62.8,29.70,SE,126,9.0,12.0,79,0.00,,,0.77,Wunderground v.1.13,2013-05-19 04:18:00,
2013-05-18 23:19:00,69.6,62.8,29.70,ESE,116,9.0,12.0,79,0.00,,,0.77,Wunderground v.1.13,2013-05-19 04:19:00,
2013-05-18 23:22:00,69.8,63.0,29.70,ESE,121,9.0,10.0,79,0.00,,,0.77,Wunderground v.1.13,2013-05-19 04:22:00,
2013-05-18 23:24:00,69.7,62.9,29.70,SE,124,9.0,12.0,79,0.00,,,0.77,Wunderground v.1.13,2013-05-19 04:24:00,
2013-05-18 23:27:00,69.6,62.4,29.70,SE,127,10.0,10.0,78,0.00,,,0.77,Wunderground v.1.13,2013-05-19 04:27:00,
2013-05-18 23:28:00,69.6,62.8,29.70,ESE,123,10.0,10.0,79,0.00,,,0.77,Wunderground v.1.13,2013-05-19 04:28:00,
2013-05-18 23:29:00,69.6,62.8,29.70,ESE,122,10.0,11.0,79,0.00,,,0.77,Wunderground v.1.13,2013-05-19 04:29:00,
2013-05-18 23:30:00,69.6,62.8,29.70,SE,125,10.0,11.0,79,0.00,,,0.77,Wunderground v.1.13,2013-05-19 04:30:00,
2013-05-18 23:32:00,69.6,62.8,29.70,SE,129,10.0,11.0,79,0.00,,,0.77,Wunderground v.1.13,2013-05-19 04:32:00,
2013-05-18 23:34:00,69.6,62.8,29.70,SE,126,10.0,11.0,79,0.00,,,0.77,Wunderground v.1.13,2013-05-19 04:34:00,
2013-05-18 23:36:00,69.5,62.7,29.70,SE,130,9.0,12.0,79,0.00,,,0.77,Wunderground v.1.13,2013-05-19 04:36:00,
2013-05-18 23:37:00,69.5,62.7,29.70,ESE,120,10.0,12.0,79,0.00,,,0.77,Wunderground v.1.13,2013-05-19 04:37:00,
2013-05-18 23:39:00,69.6,62.8,29.70,ESE,117,10.0,12.0,79,0.00,,,0.77,Wunderground v.1.13,2013-05-19 04:39:00,
2013-05-18 23:41:00,69.6,62.4,29.70,ESE,121,10.0,12.0,78,0.00,,,0.77,Wunderground v.1.13,2013-05-19 04:41:00,
2013-05-18 23:42:00,69.6,62.8,29.70,SE,126,10.0,12.0,79,0.00,,,0.77,Wunderground v.1.13,2013-05-19 04:42:00,
2013-05-18 23:43:00,69.6,62.8,29.70,ESE,117,10.0,12.0,79,0.00,,,0.77,Wunderground v.1.13,2013-05-19 04:43:00,
2013-05-18 23:45:00,69.5,62.3,29.70,ESE,120,10.0,12.0,78,0.00,,,0.77,Wunderground v.1.13,2013-05-19 04:45:00,
2013-05-18 23:46:00,69.4,62.6,29.70,ESE,123,10.0,12.0,79,0.00,,,0.77,Wunderground v.1.13,2013-05-19 04:46:00,
2013-05-18 23:47:00,69.4,62.6,29.70,SE,130,10.0,13.0,79,0.00,,,0.77,Wunderground v.1.13,2013-05-19 04:47:00,
2013-05-18 23:49:00,69.4,62.2,29.70,SE,126,10.0,13.0,78,0.00,,,0.77,Wunderground v.1.13,2013-05-19 04:49:00,
2013-05-18 23:52:00,69.2,62.4,29.70,SE,125,10.0,11.0,79,0.00,,,0.77,Wunderground v.1.13,2013-05-19 04:52:00,
2013-05-18 23:53:00,69.2,62.4,29.70,ESE,121,10.0,11.0,79,0.00,,,0.77,Wunderground v.1.13,2013-05-19 04:53:00,
2013-05-18 23:56:00,69.2,62.4,29.70,ESE,122,9.0,9.0,79,0.00,,,0.77,Wunderground v.1.13,2013-05-19 04:56:00,
2013-05-18 23:59:00,69.0,62.2,29.70,ESE,121,8.0,9.0,79,0.00,,,0.77,Wunderground v.1.13,2013-05-19 04:59:00,